Wetterdaten: Dienstag, 11.01.2022
Datum Zeit Temp. Aussen Temp. o. S. Temp +5cm Feuchte Auss Luftdruck Regen Sonnenschein Regendauer Solar Windben Empfang
11.01.2022 00:00 -0,1 C -0,6 C -1,1 C 96 % 1030,8 hPa 0,0 l/m 0 min 0 min 0 W/m 12,9 km/h (3 Bft) 97,87 %
11.01.2022 00:02 -0,1 C -0,6 C -1,1 C 96 % 1030,8 hPa 0,0 l/m 0 min 0 min 0 W/m 6,4 km/h (2 Bft) 95,35 %
11.01.2022 00:04 -0,1 C -0,6 C -1,1 C 96 % 1030,8 hPa 0,0 l/m 0 min 0 min 0 W/m 6,4 km/h (2 Bft) 95,74 %
11.01.2022 00:08 -0,1 C -0,6 C -1,1 C 96 % 1030,9 hPa 0,0 l/m 0 min 0 min 0 W/m 12,9 km/h (3 Bft) 92,71 %
11.01.2022 00:10 -0,1 C -0,6 C -1,1 C 96 % 1030,8 hPa 0,0 l/m 0 min 0 min 0 W/m 16,1 km/h (3 Bft) 97,83 %
11.01.2022 00:12 -0,1 C -0,6 C -1,1 C 96 % 1030,8 hPa 0,0 l/m 0 min 0 min 0 W/m 16,1 km/h (3 Bft) 97,87 %
11.01.2022 00:14 -0,1 C -0,6 C -1,1 C 96 % 1030,8 hPa 0,0 l/m 0 min 0 min 0 W/m 12,9 km/h (3 Bft) 97,87 %
11.01.2022 00:16 -0,1 C -0,6 C -1,1 C 96 % 1030,8 hPa 0,0 l/m 0 min 0 min 0 W/m 12,9 km/h (3 Bft) 97,87 %
11.01.2022 00:18 -0,1 C -1,1 C -1,1 C 96 % 1030,8 hPa 0,0 l/m 0 min 0 min 0 W/m 12,9 km/h (3 Bft) 97,87 %
11.01.2022 00:20 -0,1 C -1,1 C -1,1 C 96 % 1030,8 hPa 0,0 l/m 0 min 0 min 0 W/m 16,1 km/h (3 Bft) 97,87 %
11.01.2022 00:22 -0,1 C -1,1 C -1,1 C 96 % 1030,8 hPa 0,0 l/m 0 min 0 min 0 W/m 16,1 km/h (3 Bft) 97,83 %
11.01.2022 00:24 -0,1 C -1,1 C -1,1 C 96 % 1030,8 hPa 0,0 l/m 0 min 0 min 0 W/m 16,1 km/h (3 Bft) 97,87 %
11.01.2022 00:26 -0,1 C -1,1 C -1,1 C 96 % 1030,8 hPa 0,0 l/m 0 min 0 min 0 W/m 12,9 km/h (3 Bft) 93,62 %
11.01.2022 00:28 -0,1 C -1,1 C -1,1 C 96 % 1030,9 hPa 0,0 l/m 0 min 0 min 0 W/m 12,9 km/h (3 Bft) 97,87 %
11.01.2022 00:30 -0,2 C -1,1 C -1,1 C 96 % 1030,9 hPa 0,0 l/m 0 min 0 min 0 W/m 12,9 km/h (3 Bft) 97,87 %
11.01.2022 00:32 -0,2 C -1,1 C -1,1 C 96 % 1030,9 hPa 0,0 l/m 0 min 0 min 0 W/m 16,1 km/h (3 Bft) 97,83 %
11.01.2022 00:34 -0,2 C -1,1 C -1,1 C 96 % 1030,9 hPa 0,0 l/m 0 min 0 min 0 W/m 16,1 km/h (3 Bft) 97,87 %
11.01.2022 00:36 -0,2 C -1,1 C -1,1 C 96 % 1030,9 hPa 0,0 l/m 0 min 0 min 0 W/m 16,1 km/h (3 Bft) 95,74 %
11.01.2022 00:38 -0,2 C -1,1 C -1,1 C 96 % 1030,9 hPa 0,0 l/m 0 min 0 min 0 W/m 9,7 km/h (2 Bft) 97,87 %
11.01.2022 00:40 -0,2 C -1,1 C -1,1 C 96 % 1030,9 hPa 0,0 l/m 0 min 0 min 0 W/m 12,9 km/h (3 Bft) 93,62 %
11.01.2022 00:42 -0,2 C -1,1 C -1,1 C 96 % 1030,9 hPa 0,0 l/m 0 min 0 min 0 W/m 12,9 km/h (3 Bft) 95,74 %
11.01.2022 00:44 -0,3 C -1,1 C -1,1 C 96 % 1031,0 hPa 0,0 l/m 0 min 0 min 0 W/m 16,1 km/h (3 Bft) 93,62 %
11.01.2022 00:46 -0,3 C -1,1 C -1,7 C 96 % 1031,0 hPa 0,0 l/m 0 min 0 min 0 W/m 16,1 km/h (3 Bft) 93,48 %
11.01.2022 00:48 -0,4 C -1,1 C -1,7 C 96 % 1030,9 hPa 0,0 l/m 0 min 0 min 0 W/m 16,1 km/h (3 Bft) 97,87 %
11.01.2022 00:50 -0,4 C -1,7 C -1,7 C 96 % 1030,9 hPa 0,0 l/m 0 min 0 min 0 W/m 16,1 km/h (3 Bft) 95,74 %
11.01.2022 00:52 -0,4 C -1,7 C -1,7 C 96 % 1030,8 hPa 0,0 l/m 0 min 0 min 0 W/m 12,9 km/h (3 Bft) 95,74 %
11.01.2022 00:54 -0,5 C -1,7 C -1,7 C 96 % 1030,8 hPa 0,0 l/m 0 min 0 min 0 W/m 16,1 km/h (3 Bft) 95,74 %
11.01.2022 00:56 -0,6 C -1,7 C -1,7 C 96 % 1030,9 hPa 0,0 l/m 0 min 0 min 0 W/m 22,5 km/h (4 Bft) 97,83 %
11.01.2022 00:58 -0,6 C -1,7 C -1,7 C 96 % 1030,9 hPa 0,0 l/m 0 min 0 min 0 W/m 9,7 km/h (2 Bft) 97,87 %
11.01.2022 01:00 -0,6 C -1,7 C -1,7 C 96 % 1030,9 hPa 0,0 l/m 0 min 0 min 0 W/m 12,9 km/h (3 Bft) 97,87 %
11.01.2022 01:02 -0,6 C -1,7 C -1,7 C 96 % 1031,0 hPa 0,0 l/m 0 min 0 min 0 W/m 12,9 km/h (3 Bft) 95,74 %
11.01.2022 01:04 -0,7 C -1,7 C -1,7 C 96 % 1031,0 hPa 0,0 l/m 0 min 0 min 0 W/m 12,9 km/h (3 Bft) 97,87 %
11.01.2022 01:06 -0,7 C -1,7 C -1,7 C 96 % 1031,0 hPa 0,0 l/m 0 min 0 min 0 W/m 12,9 km/h (3 Bft) 97,87 %
11.01.2022 01:08 -0,7 C -1,1 C -1,7 C 96 % 1031,1 hPa 0,0 l/m 0 min 0 min 0 W/m 12,9 km/h (3 Bft) 97,83 %
11.01.2022 01:10 -0,7 C -1,1 C -1,7 C 96 % 1031,1 hPa 0,0 l/m 0 min 0 min 0 W/m 12,9 km/h (3 Bft) 95,74 %
11.01.2022 01:12 -0,7 C -1,7 C -1,7 C 97 % 1031,1 hPa 0,0 l/m 0 min 0 min 0 W/m 19,3 km/h (3 Bft) 51,11 %
11.01.2022 01:14 -0,7 C -1,7 C -1,7 C 97 % 1031,1 hPa 0,0 l/m 0 min 0 min 0 W/m 19,3 km/h (3 Bft) 97,87 %
11.01.2022 01:16 -0,7 C -1,1 C -1,7 C 97 % 1031,1 hPa 0,0 l/m 0 min 0 min 0 W/m 19,3 km/h (3 Bft) 100,00 %
11.01.2022 01:18 -0,7 C -1,1 C -1,7 C 97 % 1031,1 hPa 0,0 l/m 0 min 0 min 0 W/m 22,5 km/h (4 Bft) 100,00 %
11.01.2022 01:20 -0,7 C -1,1 C -1,7 C 97 % 1031,1 hPa 0,0 l/m 0 min 0 min 0 W/m 12,9 km/h (3 Bft) 100,00 %
11.01.2022 01:22 -0,7 C -1,1 C -1,7 C 97 % 1031,1 hPa 0,0 l/m 0 min 0 min 0 W/m 19,3 km/h (3 Bft) 100,00 %
11.01.2022 01:24 -0,7 C -1,1 C -1,7 C 97 % 1031,1 hPa 0,0 l/m 0 min 0 min 0 W/m 19,3 km/h (3 Bft) 97,87 %
11.01.2022 01:26 -0,7 C -1,1 C -1,7 C 97 % 1031,1 hPa 0,0 l/m 0 min 0 min 0 W/m 6,4 km/h (2 Bft) 100,00 %
11.01.2022 01:28 -0,7 C -1,1 C -1,1 C 97 % 1031,1 hPa 0,0 l/m 0 min 0 min 0 W/m 16,1 km/h (3 Bft) 100,00 %
11.01.2022 01:30 -0,7 C -1,1 C -1,1 C 97 % 1031,1 hPa 0,0 l/m 0 min 0 min 0 W/m 12,9 km/h (3 Bft) 97,87 %
11.01.2022 01:32 -0,7 C -1,1 C -1,1 C 97 % 1031,1 hPa 0,2 l/m 0 min 0 min 0 W/m 19,3 km/h (3 Bft) 97,83 %
11.01.2022 01:34 -0,7 C -1,1 C -1,1 C 97 % 1031,2 hPa 0,0 l/m 0 min 0 min 0 W/m 19,3 km/h (3 Bft) 97,87 %
11.01.2022 01:36 -0,6 C -1,1 C -1,1 C 97 % 1031,2 hPa 0,0 l/m 0 min 0 min 0 W/m 12,9 km/h (3 Bft) 97,87 %
11.01.2022 01:38 -0,6 C -1,1 C -1,1 C 97 % 1031,3 hPa 0,0 l/m 0 min 0 min 0 W/m 12,9 km/h (3 Bft) 97,87 %
11.01.2022 01:40 -0,6 C -1,1 C -1,1 C 97 % 1031,2 hPa 0,0 l/m 0 min 0 min 0 W/m 12,9 km/h (3 Bft) 95,74 %
11.01.2022 01:42 -0,6 C -1,1 C -1,1 C 97 % 1031,3 hPa 0,0 l/m 0 min 0 min 0 W/m 12,9 km/h (3 Bft) 97,83 %
11.01.2022 01:44 -0,6 C -1,1 C -1,1 C 97 % 1031,3 hPa 0,0 l/m 0 min 0 min 0 W/m 12,9 km/h (3 Bft) 97,87 %
11.01.2022 01:46 -0,6 C -1,1 C -1,1 C 97 % 1031,3 hPa 0,0 l/m 0 min 0 min 0 W/m 16,1 km/h (3 Bft) 95,74 %
11.01.2022 01:48 -0,6 C -1,1 C -1,1 C 97 % 1031,3 hPa 0,0 l/m 0 min 0 min 0 W/m 12,9 km/h (3 Bft) 97,87 %
11.01.2022 01:50 -0,6 C -1,1 C -1,1 C 97 % 1031,3 hPa 0,0 l/m 0 min 0 min 0 W/m 12,9 km/h (3 Bft) 97,87 %
11.01.2022 01:52 -0,6 C -1,1 C -1,1 C 97 % 1031,3 hPa 0,0 l/m 0 min 0 min 0 W/m 12,9 km/h (3 Bft) 97,87 %
11.01.2022 01:54 -0,6 C -1,1 C -1,1 C 97 % 1031,3 hPa 0,0 l/m 0 min 0 min 0 W/m 16,1 km/h (3 Bft) 97,83 %
11.01.2022 01:56 -0,6 C -1,1 C -1,1 C 97 % 1031,4 hPa 0,0 l/m 0 min 0 min 0 W/m 12,9 km/h (3 Bft) 97,87 %
11.01.2022 01:58 -0,6 C -1,1 C -1,1 C 97 % 1031,4 hPa 0,0 l/m 0 min 0 min 0 W/m 12,9 km/h (3 Bft) 97,87 %
11.01.2022 02:00 -0,6 C -1,1 C -1,1 C 97 % 1031,4 hPa 0,0 l/m 0 min 0 min 0 W/m 6,4 km/h (2 Bft) 97,87 %
11.01.2022 02:02 -0,6 C -1,1 C -1,1 C 97 % 1031,4 hPa 0,0 l/m 0 min 0 min 0 W/m 12,9 km/h (3 Bft) 97,87 %
11.01.2022 02:04 -0,6 C -1,1 C -1,1 C 97 % 1031,4 hPa 0,0 l/m 0 min 0 min 0 W/m 16,1 km/h (3 Bft) 94,74 %
11.01.2022 02:06 -0,6 C -1,1 C -1,1 C 97 % 1031,4 hPa 0,0 l/m 0 min 0 min 0 W/m 12,9 km/h (3 Bft) 97,87 %
11.01.2022 02:08 -0,6 C -1,1 C -1,1 C 97 % 1031,4 hPa 0,0 l/m 0 min 0 min 0 W/m 12,9 km/h (3 Bft) 96,49 %
11.01.2022 02:10 -0,6 C -1,1 C -1,1 C 97 % 1031,4 hPa 0,0 l/m 0 min 0 min 0 W/m 6,4 km/h (2 Bft) 100,00 %
11.01.2022 02:12 -0,6 C -1,1 C -1,1 C 97 % 1031,4 hPa 0,0 l/m 0 min 0 min 0 W/m 6,4 km/h (2 Bft) 100,00 %
11.01.2022 02:14 -0,6 C -1,1 C -1,1 C 97 % 1031,5 hPa 0,0 l/m 0 min 0 min 0 W/m 3,2 km/h (1 Bft) 100,00 %
11.01.2022 02:16 -0,6 C -1,1 C -1,1 C 97 % 1031,5 hPa 0,0 l/m 0 min 0 min 0 W/m 6,4 km/h (2 Bft) 100,00 %
11.01.2022 02:18 -0,6 C -1,1 C -1,1 C 97 % 1031,4 hPa 0,0 l/m 0 min 0 min 0 W/m 6,4 km/h (2 Bft) 100,00 %
11.01.2022 02:20 -0,6 C -1,1 C -1,1 C 97 % 1031,5 hPa 0,0 l/m 0 min 0 min 0 W/m 12,9 km/h (3 Bft) 100,00 %
11.01.2022 02:22 -0,6 C -1,1 C -1,1 C 97 % 1031,5 hPa 0,0 l/m 0 min 0 min 0 W/m 6,4 km/h (2 Bft) 100,00 %
11.01.2022 02:24 -0,6 C -1,1 C -1,1 C 97 % 1031,5 hPa 0,0 l/m 0 min 0 min 0 W/m 12,9 km/h (3 Bft) 100,00 %
11.01.2022 02:26 -0,6 C -1,1 C -1,1 C 97 % 1031,5 hPa 0,0 l/m 0 min 0 min 0 W/m 12,9 km/h (3 Bft) 100,00 %
11.01.2022 02:28 -0,6 C -1,1 C -1,1 C 97 % 1031,6 hPa 0,0 l/m 0 min 0 min 0 W/m 12,9 km/h (3 Bft) 100,00 %
11.01.2022 02:30 -0,6 C -1,1 C -1,1 C 97 % 1031,6 hPa 0,0 l/m 0 min 0 min 0 W/m 19,3 km/h (3 Bft) 100,00 %
11.01.2022 02:32 -0,6 C -1,1 C -1,1 C 97 % 1031,6 hPa 0,0 l/m 0 min 0 min 0 W/m 6,4 km/h (2 Bft) 100,00 %
11.01.2022 02:34 -0,6 C -1,1 C -1,1 C 97 % 1031,6 hPa 0,0 l/m 0 min 0 min 0 W/m 16,1 km/h (3 Bft) 100,00 %
11.01.2022 02:36 -0,6 C -1,1 C -1,1 C 97 % 1031,7 hPa 0,0 l/m 0 min 0 min 0 W/m 9,7 km/h (2 Bft) 100,00 %
11.01.2022 02:38 -0,6 C -1,1 C -1,1 C 97 % 1031,7 hPa 0,0 l/m 0 min 0 min 0 W/m 9,7 km/h (2 Bft) 100,00 %
11.01.2022 02:40 -0,6 C -1,1 C -1,1 C 97 % 1031,7 hPa 0,0 l/m 0 min 0 min 0 W/m 6,4 km/h (2 Bft) 100,00 %
11.01.2022 02:42 -0,6 C -1,1 C -1,1 C 97 % 1031,7 hPa 0,0 l/m 0 min 0 min 0 W/m 16,1 km/h (3 Bft) 100,00 %
11.01.2022 02:44 -0,6 C -1,1 C -1,1 C 97 % 1031,8 hPa 0,0 l/m 0 min 0 min 0 W/m 12,9 km/h (3 Bft) 97,83 %
11.01.2022 02:46 -0,6 C -1,1 C -1,1 C 97 % 1031,8 hPa 0,0 l/m 0 min 0 min 0 W/m 12,9 km/h (3 Bft) 97,87 %
11.01.2022 02:48 -0,6 C -1,1 C -1,1 C 97 % 1031,8 hPa 0,0 l/m 0 min 0 min 0 W/m 12,9 km/h (3 Bft) 100,00 %
11.01.2022 02:50 -0,6 C -1,1 C -1,1 C 97 % 1031,8 hPa 0,0 l/m 0 min 0 min 0 W/m 12,9 km/h (3 Bft) 100,00 %
11.01.2022 02:52 -0,6 C -1,1 C -1,1 C 97 % 1031,8 hPa 0,0 l/m 0 min 0 min 0 W/m 9,7 km/h (2 Bft) 100,00 %
11.01.2022 02:54 -0,6 C -1,1 C -1,1 C 97 % 1031,9 hPa 0,0 l/m 0 min 0 min 0 W/m 12,9 km/h (3 Bft) 97,87 %
11.01.2022 02:56 -0,6 C -1,1 C -1,1 C 97 % 1031,9 hPa 0,0 l/m 0 min 0 min 0 W/m 6,4 km/h (2 Bft) 97,83 %
11.01.2022 02:58 -0,6 C -1,1 C -1,1 C 97 % 1031,9 hPa 0,0 l/m 0 min 0 min 0 W/m 6,4 km/h (2 Bft) 97,87 %
11.01.2022 03:00 -0,6 C -1,1 C -1,1 C 97 % 1031,9 hPa 0,0 l/m 0 min 0 min 0 W/m 12,9 km/h (3 Bft) 95,74 %
11.01.2022 03:02 -0,6 C -1,1 C -1,1 C 97 % 1032,0 hPa 0,0 l/m 0 min 0 min 0 W/m 12,9 km/h (3 Bft) 97,87 %
11.01.2022 03:04 -0,6 C -1,1 C -1,1 C 97 % 1032,0 hPa 0,0 l/m 0 min 0 min 0 W/m 12,9 km/h (3 Bft) 93,62 %
11.01.2022 03:06 -0,6 C -1,1 C -1,1 C 97 % 1032,0 hPa 0,0 l/m 0 min 0 min 0 W/m 19,3 km/h (3 Bft) 93,48 %
11.01.2022 03:08 -0,6 C -1,1 C -1,1 C 98 % 1032,0 hPa 0,0 l/m 0 min 0 min 0 W/m 16,1 km/h (3 Bft) 95,74 %
11.01.2022 03:10 -0,7 C -1,1 C -1,1 C 98 % 1032,0 hPa 0,0 l/m 0 min 0 min 0 W/m 16,1 km/h (3 Bft) 95,74 %
11.01.2022 03:12 -0,7 C -1,1 C -1,1 C 98 % 1032,0 hPa 0,0 l/m 0 min 0 min 0 W/m 12,9 km/h (3 Bft) 97,87 %
11.01.2022 03:14 -0,7 C -1,1 C -1,1 C 98 % 1032,0 hPa 0,0 l/m 0 min 0 min 0 W/m 16,1 km/h (3 Bft) 95,74 %
11.01.2022 03:16 -0,7 C -1,1 C -1,1 C 98 % 1032,1 hPa 0,0 l/m 0 min 0 min 0 W/m 19,3 km/h (3 Bft) 95,74 %
11.01.2022 03:18 -0,7 C -1,1 C -1,1 C 98 % 1032,1 hPa 0,0 l/m 0 min 0 min 0 W/m 22,5 km/h (4 Bft) 93,48 %
11.01.2022 03:20 -0,7 C -1,1 C -1,1 C 98 % 1032,1 hPa 0,0 l/m 0 min 0 min 0 W/m 16,1 km/h (3 Bft) 51,06 %
11.01.2022 03:22 -0,7 C -1,1 C -1,1 C 98 % 1032,1 hPa 0,0 l/m 0 min 0 min 0 W/m 12,9 km/h (3 Bft) 93,62 %
11.01.2022 03:24 -0,7 C -1,1 C -1,1 C 98 % 1032,1 hPa 0,0 l/m 0 min 0 min 0 W/m 12,9 km/h (3 Bft) 93,62 %
11.01.2022 03:26 -0,7 C -1,1 C -1,1 C 98 % 1032,1 hPa 0,0 l/m 0 min 0 min 0 W/m 12,9 km/h (3 Bft) 95,74 %
11.01.2022 03:28 -0,7 C -1,1 C -1,1 C 98 % 1032,1 hPa 0,0 l/m 0 min 0 min 0 W/m 3,2 km/h (1 Bft) 93,62 %
11.01.2022 03:30 -0,7 C -1,1 C -1,1 C 98 % 1032,1 hPa 0,0 l/m 0 min 0 min 0 W/m 6,4 km/h (2 Bft) 91,30 %
11.01.2022 03:32 -0,7 C -1,1 C -1,1 C 98 % 1032,0 hPa 0,0 l/m 0 min 0 min 0 W/m 16,1 km/h (3 Bft) 89,36 %
11.01.2022 03:34 -0,7 C -1,1 C -1,1 C 98 % 1032,1 hPa 0,0 l/m 0 min 0 min 0 W/m 12,9 km/h (3 Bft) 95,74 %
11.01.2022 03:36 -0,7 C -1,1 C -1,1 C 98 % 1032,1 hPa 0,0 l/m 0 min 0 min 0 W/m 12,9 km/h (3 Bft) 93,62 %
11.01.2022 03:38 -0,7 C -1,1 C -1,1 C 98 % 1032,1 hPa 0,0 l/m 0 min 0 min 0 W/m 16,1 km/h (3 Bft) 93,62 %
11.01.2022 03:40 -0,7 C -1,1 C -1,1 C 98 % 1032,1 hPa 0,0 l/m 0 min 0 min 0 W/m 12,9 km/h (3 Bft) 93,62 %
11.01.2022 03:42 -0,7 C -1,1 C -1,1 C 98 % 1032,1 hPa 0,0 l/m 0 min 0 min 0 W/m 12,9 km/h (3 Bft) 93,48 %
11.01.2022 03:44 -0,7 C -1,1 C -1,1 C 98 % 1032,1 hPa 0,0 l/m 0 min 0 min 0 W/m 12,9 km/h (3 Bft) 95,74 %
11.01.2022 03:46 -0,7 C -1,1 C -1,1 C 98 % 1032,0 hPa 0,0 l/m 0 min 0 min 0 W/m 12,9 km/h (3 Bft) 95,74 %
11.01.2022 03:48 -0,7 C -1,1 C -1,1 C 98 % 1032,0 hPa 0,0 l/m 0 min 0 min 0 W/m 16,1 km/h (3 Bft) 95,74 %
11.01.2022 03:50 -0,7 C -1,1 C -1,1 C 98 % 1032,1 hPa 0,0 l/m 0 min 0 min 0 W/m 9,7 km/h (2 Bft) 95,74 %
11.01.2022 03:52 -0,7 C -1,1 C -1,1 C 98 % 1032,1 hPa 0,0 l/m 0 min 0 min 0 W/m 12,9 km/h (3 Bft) 95,74 %
11.01.2022 03:54 -0,7 C -1,1 C -1,1 C 98 % 1032,1 hPa 0,0 l/m 0 min 0 min 0 W/m 12,9 km/h (3 Bft) 95,65 %
11.01.2022 03:56 -0,7 C -1,1 C -1,1 C 98 % 1032,0 hPa 0,0 l/m 0 min 0 min 0 W/m 16,1 km/h (3 Bft) 95,74 %
11.01.2022 03:58 -0,7 C -1,1 C -1,1 C 98 % 1032,1 hPa 0,0 l/m 0 min 0 min 0 W/m 12,9 km/h (3 Bft) 95,74 %
11.01.2022 04:00 -0,7 C -1,1 C -1,1 C 98 % 1032,1 hPa 0,0 l/m 0 min 0 min 0 W/m 9,7 km/h (2 Bft) 97,87 %
11.01.2022 04:02 -0,7 C -1,1 C -1,1 C 98 % 1032,0 hPa 0,0 l/m 0 min 0 min 0 W/m 6,4 km/h (2 Bft) 100,00 %
11.01.2022 04:04 -0,7 C -1,1 C -1,1 C 98 % 1032,0 hPa 0,0 l/m 0 min 0 min 0 W/m 9,7 km/h (2 Bft) 97,87 %
11.01.2022 04:06 -0,7 C -1,1 C -1,1 C 98 % 1032,1 hPa 0,0 l/m 0 min 0 min 0 W/m 12,9 km/h (3 Bft) 97,83 %
11.01.2022 04:08 -0,7 C -1,1 C -1,1 C 98 % 1032,1 hPa 0,0 l/m 0 min 0 min 0 W/m 6,4 km/h (2 Bft) 95,74 %
11.01.2022 04:10 -0,7 C -1,1 C -1,1 C 98 % 1032,1 hPa 0,0 l/m 0 min 0 min 0 W/m 12,9 km/h (3 Bft) 97,87 %
11.01.2022 04:12 -0,7 C -1,1 C -1,1 C 98 % 1032,1 hPa 0,0 l/m 0 min 0 min 0 W/m 6,4 km/h (2 Bft) 100,00 %
11.01.2022 04:14 -0,7 C -1,1 C -1,1 C 98 % 1032,1 hPa 0,0 l/m 0 min 0 min 0 W/m 3,2 km/h (1 Bft) 100,00 %
11.01.2022 04:16 -0,7 C -1,1 C -1,1 C 98 % 1032,1 hPa 0,0 l/m 0 min 0 min 0 W/m 16,1 km/h (3 Bft) 100,00 %
11.01.2022 04:18 -0,7 C -1,1 C -1,1 C 98 % 1032,2 hPa 0,0 l/m 0 min 0 min 0 W/m 9,7 km/h (2 Bft) 97,87 %
11.01.2022 04:20 -0,7 C -1,1 C -1,1 C 98 % 1032,2 hPa 0,0 l/m 0 min 0 min 0 W/m 19,3 km/h (3 Bft) 97,87 %
11.01.2022 04:22 -0,7 C -1,1 C -1,1 C 98 % 1032,2 hPa 0,0 l/m 0 min 0 min 0 W/m 12,9 km/h (3 Bft) 100,00 %
11.01.2022 04:24 -0,7 C -1,1 C -1,1 C 98 % 1032,2 hPa 0,0 l/m 0 min 0 min 0 W/m 12,9 km/h (3 Bft) 100,00 %
11.01.2022 04:26 -0,7 C -1,1 C -1,1 C 98 % 1032,3 hPa 0,0 l/m 0 min 0 min 0 W/m 6,4 km/h (2 Bft) 100,00 %
11.01.2022 04:28 -0,7 C -1,1 C -1,1 C 98 % 1032,4 hPa 0,0 l/m 0 min 0 min 0 W/m 6,4 km/h (2 Bft) 100,00 %
11.01.2022 04:30 -0,7 C -1,1 C -1,1 C 98 % 1032,4 hPa 0,0 l/m 0 min 0 min 0 W/m 12,9 km/h (3 Bft) 100,00 %
11.01.2022 04:32 -0,7 C -1,1 C -1,1 C 98 % 1032,4 hPa 0,0 l/m 0 min 0 min 0 W/m 12,9 km/h (3 Bft) 100,00 %
11.01.2022 04:34 -0,7 C -1,1 C -1,1 C 98 % 1032,4 hPa 0,0 l/m 0 min 0 min 0 W/m 9,7 km/h (2 Bft) 100,00 %
11.01.2022 04:36 -0,7 C -1,1 C -1,1 C 98 % 1032,4 hPa 0,0 l/m 0 min 0 min 0 W/m 6,4 km/h (2 Bft) 95,74 %
11.01.2022 04:38 -0,7 C -1,1 C -1,1 C 98 % 1032,5 hPa 0,0 l/m 0 min 0 min 0 W/m 6,4 km/h (2 Bft) 97,87 %
11.01.2022 04:40 -0,7 C -1,1 C -1,1 C 98 % 1032,5 hPa 0,0 l/m 0 min 0 min 0 W/m 16,1 km/h (3 Bft) 100,00 %
11.01.2022 04:42 -0,7 C -1,1 C -1,1 C 98 % 1032,4 hPa 0,0 l/m 0 min 0 min 0 W/m 6,4 km/h (2 Bft) 100,00 %
11.01.2022 04:44 -0,7 C -1,1 C -1,1 C 98 % 1032,4 hPa 0,0 l/m 0 min 0 min 0 W/m 12,9 km/h (3 Bft) 100,00 %
11.01.2022 04:46 -0,7 C -1,1 C -1,1 C 98 % 1032,4 hPa 0,0 l/m 0 min 0 min 0 W/m 16,1 km/h (3 Bft) 93,62 %
11.01.2022 04:48 -0,7 C -1,1 C -1,1 C 98 % 1032,5 hPa 0,0 l/m 0 min 0 min 0 W/m 19,3 km/h (3 Bft) 100,00 %
11.01.2022 04:50 -0,7 C -1,1 C -1,1 C 98 % 1032,5 hPa 0,0 l/m 0 min 0 min 0 W/m 16,1 km/h (3 Bft) 100,00 %
11.01.2022 04:52 -0,7 C -1,1 C -1,1 C 98 % 1032,5 hPa 0,0 l/m 0 min 0 min 0 W/m 12,9 km/h (3 Bft) 100,00 %
11.01.2022 04:54 -0,7 C -1,1 C -1,1 C 98 % 1032,5 hPa 0,0 l/m 0 min 0 min 0 W/m 12,9 km/h (3 Bft) 100,00 %
11.01.2022 04:56 -0,7 C -1,1 C -1,1 C 98 % 1032,5 hPa 0,0 l/m 0 min 0 min 0 W/m 6,4 km/h (2 Bft) 100,00 %
11.01.2022 04:58 -0,7 C -1,1 C -1,1 C 98 % 1032,6 hPa 0,0 l/m 0 min 0 min 0 W/m 6,4 km/h (2 Bft) 97,87 %
11.01.2022 05:00 -0,7 C -1,1 C -1,1 C 98 % 1032,6 hPa 0,0 l/m 0 min 0 min 0 W/m 6,4 km/h (2 Bft) 100,00 %
11.01.2022 05:02 -0,7 C -1,1 C -1,1 C 98 % 1032,6 hPa 0,0 l/m 0 min 0 min 0 W/m 6,4 km/h (2 Bft) 95,74 %
11.01.2022 05:04 -0,6 C -1,1 C -1,1 C 98 % 1032,6 hPa 0,0 l/m 0 min 0 min 0 W/m 3,2 km/h (1 Bft) 100,00 %
11.01.2022 05:06 -0,7 C -1,1 C -0,6 C 98 % 1032,6 hPa 0,0 l/m 0 min 0 min 0 W/m 3,2 km/h (1 Bft) 100,00 %
11.01.2022 05:08 -0,7 C -1,1 C -0,6 C 98 % 1032,6 hPa 0,0 l/m 0 min 0 min 0 W/m 12,9 km/h (3 Bft) 100,00 %
11.01.2022 05:10 -0,6 C -1,1 C -1,1 C 98 % 1032,6 hPa 0,0 l/m 0 min 0 min 0 W/m 12,9 km/h (3 Bft) 97,87 %
11.01.2022 05:12 -0,6 C -1,1 C -0,6 C 98 % 1032,6 hPa 0,0 l/m 0 min 0 min 0 W/m 6,4 km/h (2 Bft) 97,87 %
11.01.2022 05:14 -0,6 C -1,1 C -0,6 C 98 % 1032,6 hPa 0,0 l/m 0 min 0 min 0 W/m 6,4 km/h (2 Bft) 97,87 %
11.01.2022 05:16 -0,6 C -1,1 C -0,6 C 98 % 1032,7 hPa 0,0 l/m 0 min 0 min 0 W/m 9,7 km/h (2 Bft) 97,83 %
11.01.2022 05:18 -0,6 C -1,1 C -0,6 C 98 % 1032,6 hPa 0,0 l/m 0 min 0 min 0 W/m 12,9 km/h (3 Bft) 97,87 %
11.01.2022 05:20 -0,6 C -1,1 C -0,6 C 98 % 1032,6 hPa 0,0 l/m 0 min 0 min 0 W/m 12,9 km/h (3 Bft) 95,74 %
11.01.2022 05:22 -0,6 C -1,1 C -1,1 C 98 % 1032,6 hPa 0,0 l/m 0 min 0 min 0 W/m 16,1 km/h (3 Bft) 95,74 %
11.01.2022 05:24 -0,6 C -1,1 C -1,1 C 98 % 1032,7 hPa 0,0 l/m 0 min 0 min 0 W/m 12,9 km/h (3 Bft) 95,74 %
11.01.2022 05:26 -0,6 C -1,1 C -1,1 C 98 % 1032,7 hPa 0,0 l/m 0 min 0 min 0 W/m 12,9 km/h (3 Bft) 95,74 %
11.01.2022 05:28 -0,6 C -1,1 C -0,6 C 98 % 1032,7 hPa 0,0 l/m 0 min 0 min 0 W/m 6,4 km/h (2 Bft) 95,65 %
11.01.2022 05:30 -0,6 C -1,1 C -0,6 C 98 % 1032,7 hPa 0,0 l/m 0 min 0 min 0 W/m 6,4 km/h (2 Bft) 95,74 %
11.01.2022 05:32 -0,6 C -1,1 C -0,6 C 98 % 1032,7 hPa 0,0 l/m 0 min 0 min 0 W/m 19,3 km/h (3 Bft) 95,74 %
11.01.2022 05:34 -0,6 C -1,1 C -0,6 C 98 % 1032,7 hPa 0,0 l/m 0 min 0 min 0 W/m 6,4 km/h (2 Bft) 95,74 %
11.01.2022 05:36 -0,6 C -1,1 C -0,6 C 98 % 1032,6 hPa 0,0 l/m 0 min 0 min 0 W/m 6,4 km/h (2 Bft) 95,74 %
11.01.2022 05:38 -0,6 C -1,1 C -0,6 C 98 % 1032,6 hPa 0,0 l/m 0 min 0 min 0 W/m 6,4 km/h (2 Bft) 95,74 %
11.01.2022 05:40 -0,6 C -1,1 C -0,6 C 98 % 1032,6 hPa 0,0 l/m 0 min 0 min 0 W/m 6,4 km/h (2 Bft) 93,88 %
11.01.2022 05:42 -0,6 C -1,1 C -0,6 C 98 % 1032,6 hPa 0,0 l/m 0 min 0 min 0 W/m 6,4 km/h (2 Bft) 95,74 %
11.01.2022 05:44 -0,6 C -1,1 C -0,6 C 98 % 1032,6 hPa 0,0 l/m 0 min 0 min 0 W/m 6,4 km/h (2 Bft) 91,49 %
11.01.2022 05:46 -0,6 C -1,1 C -0,6 C 98 % 1032,6 hPa 0,0 l/m 0 min 0 min 0 W/m 6,4 km/h (2 Bft) 95,74 %
11.01.2022 05:48 -0,6 C -1,1 C -0,6 C 98 % 1032,6 hPa 0,0 l/m 0 min 0 min 0 W/m 12,9 km/h (3 Bft) 95,74 %
11.01.2022 05:50 -0,6 C -1,1 C -0,6 C 98 % 1032,6 hPa 0,0 l/m 0 min 0 min 0 W/m 12,9 km/h (3 Bft) 93,48 %
11.01.2022 05:52 -0,6 C -1,1 C -0,6 C 98 % 1032,6 hPa 0,0 l/m 0 min 0 min 0 W/m 12,9 km/h (3 Bft) 93,62 %
11.01.2022 05:54 -0,6 C -1,1 C -0,6 C 98 % 1032,6 hPa 0,0 l/m 0 min 0 min 0 W/m 12,9 km/h (3 Bft) 100,00 %
11.01.2022 05:56 -0,7 C -1,1 C -0,6 C 98 % 1032,6 hPa 0,0 l/m 0 min 0 min 0 W/m 6,4 km/h (2 Bft) 100,00 %
11.01.2022 05:58 -0,7 C -1,1 C -0,6 C 98 % 1032,7 hPa 0,0 l/m 0 min 0 min 0 W/m 6,4 km/h (2 Bft) 97,87 %
11.01.2022 06:00 -0,7 C -1,1 C -0,6 C 98 % 1032,6 hPa 0,0 l/m 0 min 0 min 0 W/m 9,7 km/h (2 Bft) 100,00 %
11.01.2022 06:02 -0,7 C -1,1 C -0,6 C 98 % 1032,6 hPa 0,0 l/m 0 min 0 min 0 W/m 12,9 km/h (3 Bft) 97,87 %
11.01.2022 06:04 -0,7 C -1,1 C -0,6 C 98 % 1032,6 hPa 0,0 l/m 0 min 0 min 0 W/m 12,9 km/h (3 Bft) 97,83 %
11.01.2022 06:06 -0,7 C -1,1 C -0,6 C 98 % 1032,7 hPa 0,0 l/m 0 min 0 min 0 W/m 9,7 km/h (2 Bft) 95,83 %
11.01.2022 06:08 -0,7 C -1,1 C -0,6 C 98 % 1032,7 hPa 0,0 l/m 0 min 0 min 0 W/m 6,4 km/h (2 Bft) 97,87 %
11.01.2022 06:10 -0,7 C -1,1 C -0,6 C 98 % 1032,6 hPa 0,0 l/m 0 min 0 min 0 W/m 12,9 km/h (3 Bft) 97,87 %
11.01.2022 06:12 -0,7 C -1,1 C -0,6 C 98 % 1032,6 hPa 0,0 l/m 0 min 0 min 0 W/m 12,9 km/h (3 Bft) 56,52 %
11.01.2022 06:14 -0,7 C -1,1 C -0,6 C 98 % 1032,7 hPa 0,0 l/m 0 min 0 min 0 W/m 9,7 km/h (2 Bft) 97,83 %
11.01.2022 06:16 -0,7 C -1,1 C -0,6 C 98 % 1032,7 hPa 0,0 l/m 0 min 0 min 0 W/m 6,4 km/h (2 Bft) 95,74 %
11.01.2022 06:18 -0,7 C -1,1 C -0,6 C 98 % 1032,7 hPa 0,0 l/m 0 min 0 min 0 W/m 9,7 km/h (2 Bft) 97,87 %
11.01.2022 06:20 -0,7 C -1,1 C -1,1 C 98 % 1032,7 hPa 0,0 l/m 0 min 0 min 0 W/m 6,4 km/h (2 Bft) 97,87 %
11.01.2022 06:22 -0,7 C -1,7 C -1,1 C 98 % 1032,7 hPa 0,0 l/m 0 min 0 min 0 W/m 12,9 km/h (3 Bft) 97,87 %
11.01.2022 06:24 -0,7 C -1,7 C -1,1 C 98 % 1032,7 hPa 0,0 l/m 0 min 0 min 0 W/m 6,4 km/h (2 Bft) 97,87 %
11.01.2022 06:26 -0,8 C -1,1 C -1,1 C 98 % 1032,7 hPa 0,0 l/m 0 min 0 min 0 W/m 12,9 km/h (3 Bft) 97,87 %
11.01.2022 06:28 -0,8 C -1,7 C -1,1 C 98 % 1032,6 hPa 0,0 l/m 0 min 0 min 0 W/m 6,4 km/h (2 Bft) 97,83 %
11.01.2022 06:30 -0,8 C -1,7 C -1,1 C 98 % 1032,6 hPa 0,0 l/m 0 min 0 min 0 W/m 6,4 km/h (2 Bft) 97,87 %
11.01.2022 06:32 -0,8 C -1,1 C -1,1 C 98 % 1032,6 hPa 0,0 l/m 0 min 0 min 0 W/m 6,4 km/h (2 Bft) 97,87 %
11.01.2022 06:34 -0,8 C -1,1 C -1,1 C 98 % 1032,7 hPa 0,0 l/m 0 min 0 min 0 W/m 12,9 km/h (3 Bft) 95,74 %
11.01.2022 06:36 -0,8 C -1,1 C -1,1 C 98 % 1032,6 hPa 0,0 l/m 0 min 0 min 0 W/m 12,9 km/h (3 Bft) 97,87 %
11.01.2022 06:38 -0,8 C -1,1 C -1,1 C 98 % 1032,7 hPa 0,0 l/m 0 min 0 min 0 W/m 9,7 km/h (2 Bft) 95,65 %
11.01.2022 06:40 -0,8 C -1,1 C -1,1 C 98 % 1032,7 hPa 0,0 l/m 0 min 0 min 0 W/m 6,4 km/h (2 Bft) 97,87 %
11.01.2022 06:42 -0,8 C -1,7 C -1,1 C 98 % 1032,7 hPa 0,0 l/m 0 min 0 min 0 W/m 12,9 km/h (3 Bft) 97,87 %
11.01.2022 06:44 -0,8 C -1,7 C -1,1 C 98 % 1032,6 hPa 0,0 l/m 0 min 0 min 0 W/m 16,1 km/h (3 Bft) 97,87 %
11.01.2022 06:46 -0,8 C -1,7 C -1,1 C 98 % 1032,7 hPa 0,0 l/m 0 min 0 min 0 W/m 12,9 km/h (3 Bft) 93,62 %
11.01.2022 06:48 -0,9 C -1,7 C -1,1 C 98 % 1032,7 hPa 0,0 l/m 0 min 0 min 0 W/m 12,9 km/h (3 Bft) 97,87 %
11.01.2022 06:50 -0,9 C -1,7 C -1,1 C 98 % 1032,7 hPa 0,0 l/m 0 min 0 min 0 W/m 6,4 km/h (2 Bft) 97,83 %
11.01.2022 06:52 -0,9 C -1,7 C -1,1 C 98 % 1032,8 hPa 0,0 l/m 0 min 0 min 0 W/m 12,9 km/h (3 Bft) 95,74 %
11.01.2022 06:54 -0,9 C -1,7 C -1,1 C 98 % 1032,8 hPa 0,0 l/m 0 min 0 min 0 W/m 16,1 km/h (3 Bft) 97,87 %
11.01.2022 06:56 -0,9 C -1,7 C -1,1 C 98 % 1032,8 hPa 0,0 l/m 0 min 0 min 0 W/m 6,4 km/h (2 Bft) 95,74 %
11.01.2022 06:58 -0,9 C -1,7 C -1,1 C 98 % 1032,8 hPa 0,0 l/m 0 min 0 min 0 W/m 12,9 km/h (3 Bft) 100,00 %
11.01.2022 07:00 -0,8 C -1,1 C -1,1 C 98 % 1032,8 hPa 0,0 l/m 0 min 0 min 0 W/m 16,1 km/h (3 Bft) 97,87 %
11.01.2022 07:02 -0,8 C -1,1 C -1,1 C 98 % 1032,8 hPa 0,0 l/m 0 min 0 min 0 W/m 12,9 km/h (3 Bft) 97,83 %
11.01.2022 07:04 -0,8 C -1,7 C -1,1 C 98 % 1032,8 hPa 0,0 l/m 0 min 0 min 0 W/m 16,1 km/h (3 Bft) 97,87 %
11.01.2022 07:06 -0,8 C -1,7 C -1,1 C 98 % 1032,7 hPa 0,0 l/m 0 min 0 min 0 W/m 16,1 km/h (3 Bft) 97,87 %
11.01.2022 07:08 -0,8 C -1,7 C -1,1 C 98 % 1032,8 hPa 0,0 l/m 0 min 0 min 0 W/m 16,1 km/h (3 Bft) 97,87 %
11.01.2022 07:10 -0,8 C -1,7 C -1,1 C 98 % 1032,8 hPa 0,0 l/m 0 min 0 min 0 W/m 12,9 km/h (3 Bft) 100,00 %
11.01.2022 07:12 -0,8 C -1,7 C -1,1 C 98 % 1032,8 hPa 0,0 l/m 0 min 0 min 0 W/m 9,7 km/h (2 Bft) 100,00 %
11.01.2022 07:14 -0,9 C -1,7 C -1,1 C 98 % 1032,9 hPa 0,0 l/m 0 min 0 min 0 W/m 19,3 km/h (3 Bft) 95,65 %
11.01.2022 07:16 -0,9 C -1,7 C -1,1 C 98 % 1032,9 hPa 0,0 l/m 0 min 0 min 0 W/m 6,4 km/h (2 Bft) 100,00 %
11.01.2022 07:18 -0,9 C -1,7 C -1,1 C 98 % 1032,9 hPa 0,0 l/m 0 min 0 min 0 W/m 6,4 km/h (2 Bft) 97,87 %
11.01.2022 07:20 -0,9 C -1,7 C -1,1 C 98 % 1032,9 hPa 0,0 l/m 0 min 0 min 0 W/m 12,9 km/h (3 Bft) 89,36 %
11.01.2022 07:22 -0,9 C -1,7 C -1,1 C 98 % 1032,9 hPa 0,0 l/m 0 min 0 min 0 W/m 16,1 km/h (3 Bft) 97,87 %
11.01.2022 07:24 -0,9 C -1,7 C -1,1 C 98 % 1032,8 hPa 0,0 l/m 0 min 0 min 0 W/m 9,7 km/h (2 Bft) 97,83 %
11.01.2022 07:26 -0,9 C -1,7 C -1,1 C 98 % 1032,8 hPa 0,0 l/m 0 min 0 min 0 W/m 12,9 km/h (3 Bft) 97,87 %
11.01.2022 07:28 -0,9 C -1,7 C -1,1 C 98 % 1032,9 hPa 0,0 l/m 0 min 0 min 0 W/m 12,9 km/h (3 Bft) 97,87 %
11.01.2022 07:30 -0,9 C -1,7 C -1,1 C 98 % 1032,9 hPa 0,0 l/m 0 min 0 min 0 W/m 12,9 km/h (3 Bft) 95,74 %
11.01.2022 07:32 -0,9 C -1,7 C -1,1 C 98 % 1032,9 hPa 0,0 l/m 0 min 0 min 0 W/m 16,1 km/h (3 Bft) 95,74 %
11.01.2022 07:34 -0,9 C -1,7 C -1,1 C 98 % 1033,0 hPa 0,0 l/m 0 min 0 min 0 W/m 16,1 km/h (3 Bft) 95,74 %
11.01.2022 07:36 -0,9 C -1,7 C -1,1 C 98 % 1033,0 hPa 0,0 l/m 0 min 0 min 0 W/m 12,9 km/h (3 Bft) 95,65 %
11.01.2022 07:38 -0,9 C -1,7 C -1,1 C 98 % 1033,0 hPa 0,0 l/m 0 min 0 min 0 W/m 12,9 km/h (3 Bft) 95,74 %
11.01.2022 07:40 -1,0 C -1,7 C -1,1 C 98 % 1033,1 hPa 0,0 l/m 0 min 0 min 0 W/m 19,3 km/h (3 Bft) 95,74 %
11.01.2022 07:42 -1,0 C -1,7 C -1,1 C 98 % 1033,1 hPa 0,0 l/m 0 min 0 min 0 W/m 12,9 km/h (3 Bft) 91,49 %
11.01.2022 07:44 -1,1 C -1,7 C -1,1 C 98 % 1033,1 hPa 0,0 l/m 0 min 0 min 0 W/m 6,4 km/h (2 Bft) 95,74 %
11.01.2022 07:46 -1,1 C -1,7 C -1,1 C 98 % 1033,1 hPa 0,0 l/m 0 min 0 min 0 W/m 6,4 km/h (2 Bft) 95,74 %
11.01.2022 07:48 -1,1 C -1,7 C -1,1 C 98 % 1033,2 hPa 0,0 l/m 0 min 0 min 0 W/m 6,4 km/h (2 Bft) 100,00 %
11.01.2022 07:50 -1,1 C -1,7 C -1,1 C 98 % 1033,2 hPa 0,0 l/m 0 min 0 min 0 W/m 6,4 km/h (2 Bft) 97,87 %
11.01.2022 07:52 -1,1 C -1,7 C -1,1 C 98 % 1033,2 hPa 0,0 l/m 0 min 0 min 0 W/m 12,9 km/h (3 Bft) 97,87 %
11.01.2022 07:54 -1,1 C -1,7 C -1,1 C 98 % 1033,2 hPa 0,0 l/m 0 min 0 min 0 W/m 6,4 km/h (2 Bft) 97,87 %
11.01.2022 07:56 -1,1 C -1,7 C -1,1 C 98 % 1033,3 hPa 0,0 l/m 0 min 0 min 0 W/m 6,4 km/h (2 Bft) 95,74 %
11.01.2022 07:58 -1,1 C -1,7 C -1,1 C 98 % 1033,3 hPa 0,0 l/m 0 min 0 min 0 W/m 12,9 km/h (3 Bft) 97,87 %
11.01.2022 08:00 -1,1 C -1,7 C -1,1 C 98 % 1033,3 hPa 0,0 l/m 0 min 0 min 0 W/m 12,9 km/h (3 Bft) 97,87 %
11.01.2022 08:02 -1,1 C -1,7 C -1,1 C 98 % 1033,3 hPa 0,0 l/m 0 min 0 min 0 W/m 16,1 km/h (3 Bft) 95,65 %
11.01.2022 08:04 -1,1 C -1,7 C -1,1 C 98 % 1033,4 hPa 0,0 l/m 0 min 0 min 0 W/m 16,1 km/h (3 Bft) 95,74 %
11.01.2022 08:06 -1,1 C -1,7 C -1,1 C 98 % 1033,4 hPa 0,0 l/m 0 min 0 min 0 W/m 16,1 km/h (3 Bft) 100,00 %
11.01.2022 08:08 -1,1 C -1,7 C -1,1 C 98 % 1033,4 hPa 0,0 l/m 0 min 0 min 0 W/m 9,7 km/h (2 Bft) 96,61 %
11.01.2022 08:10 -1,2 C -1,7 C -1,1 C 98 % 1033,5 hPa 0,0 l/m 0 min 0 min 0 W/m 12,9 km/h (3 Bft) 100,00 %
11.01.2022 08:12 -1,2 C -1,7 C -1,1 C 98 % 1033,5 hPa 0,0 l/m 0 min 0 min 0 W/m 12,9 km/h (3 Bft) 97,83 %
11.01.2022 08:14 -1,2 C -1,7 C -1,1 C 98 % 1033,5 hPa 0,0 l/m 0 min 0 min 0 W/m 6,4 km/h (2 Bft) 97,87 %
11.01.2022 08:16 -1,2 C -1,7 C -1,1 C 98 % 1033,5 hPa 0,0 l/m 0 min 0 min 0 W/m 12,9 km/h (3 Bft) 95,74 %
11.01.2022 08:18 -1,2 C -1,7 C -1,1 C 98 % 1033,5 hPa 0,0 l/m 0 min 0 min 0 W/m 12,9 km/h (3 Bft) 100,00 %
11.01.2022 08:20 -1,2 C -1,7 C -1,1 C 98 % 1033,5 hPa 0,0 l/m 0 min 0 min 0 W/m 6,4 km/h (2 Bft) 100,00 %
11.01.2022 08:22 -1,2 C -1,7 C -1,1 C 98 % 1033,6 hPa 0,0 l/m 0 min 0 min 0 W/m 12,9 km/h (3 Bft) 100,00 %
11.01.2022 08:24 -1,2 C -1,7 C -1,1 C 98 % 1033,5 hPa 0,0 l/m 0 min 0 min 0 W/m 6,4 km/h (2 Bft) 97,87 %
11.01.2022 08:26 -1,2 C -1,7 C -1,1 C 98 % 1033,6 hPa 0,0 l/m 0 min 0 min 0 W/m 12,9 km/h (3 Bft) 100,00 %
11.01.2022 08:28 -1,2 C -1,7 C -1,1 C 98 % 1033,6 hPa 0,0 l/m 0 min 0 min 0 W/m 12,9 km/h (3 Bft) 100,00 %
11.01.2022 08:30 -1,2 C -1,7 C -1,1 C 98 % 1033,6 hPa 0,0 l/m 0 min 0 min 0 W/m 12,9 km/h (3 Bft) 97,87 %
11.01.2022 08:32 -1,2 C -1,7 C -1,1 C 98 % 1033,5 hPa 0,0 l/m 0 min 0 min 0 W/m 12,9 km/h (3 Bft) 97,87 %
11.01.2022 08:34 -1,2 C -1,7 C -1,1 C 98 % 1033,6 hPa 0,0 l/m 0 min 0 min 0 W/m 9,7 km/h (2 Bft) 100,00 %
11.01.2022 08:36 -1,2 C -1,7 C -1,1 C 98 % 1033,6 hPa 0,0 l/m 0 min 0 min 0 W/m 12,9 km/h (3 Bft) 100,00 %
11.01.2022 08:38 -1,2 C -1,7 C -1,1 C 98 % 1033,6 hPa 0,0 l/m 0 min 0 min 0 W/m 12,9 km/h (3 Bft) 100,00 %
11.01.2022 08:40 -1,2 C -1,7 C -1,1 C 98 % 1033,5 hPa 0,0 l/m 0 min 0 min 0 W/m 16,1 km/h (3 Bft) 100,00 %
11.01.2022 08:42 -1,2 C -1,7 C -1,1 C 98 % 1033,5 hPa 0,0 l/m 0 min 0 min 0 W/m 9,7 km/h (2 Bft) 100,00 %
11.01.2022 08:44 -1,2 C -1,7 C -1,1 C 98 % 1033,6 hPa 0,0 l/m 0 min 0 min 2 W/m 16,1 km/h (3 Bft) 100,00 %
11.01.2022 08:46 -1,2 C -1,7 C -1,1 C 98 % 1033,6 hPa 0,0 l/m 0 min 0 min 5 W/m 19,3 km/h (3 Bft) 97,83 %
11.01.2022 08:48 -1,2 C -1,7 C -1,1 C 98 % 1033,6 hPa 0,0 l/m 0 min 0 min 5 W/m 12,9 km/h (3 Bft) 100,00 %
11.01.2022 08:50 -1,2 C -1,7 C -1,1 C 98 % 1033,6 hPa 0,0 l/m 0 min 0 min 5 W/m 6,4 km/h (2 Bft) 100,00 %
11.01.2022 08:52 -1,2 C -1,7 C -1,1 C 98 % 1033,7 hPa 0,0 l/m 0 min 0 min 5 W/m 12,9 km/h (3 Bft) 100,00 %
11.01.2022 08:54 -1,2 C -1,7 C -1,1 C 98 % 1033,7 hPa 0,0 l/m 0 min 0 min 6 W/m 12,9 km/h (3 Bft) 100,00 %
11.01.2022 08:56 -1,2 C -1,7 C -1,1 C 98 % 1033,7 hPa 0,0 l/m 0 min 0 min 7 W/m 6,4 km/h (2 Bft) 100,00 %
11.01.2022 08:58 -1,2 C -1,7 C -1,1 C 98 % 1033,8 hPa 0,0 l/m 0 min 0 min 9 W/m 6,4 km/h (2 Bft) 97,83 %
11.01.2022 09:00 -1,2 C -1,7 C -1,1 C 98 % 1033,8 hPa 0,0 l/m 0 min 0 min 9 W/m 6,4 km/h (2 Bft) 97,87 %
11.01.2022 09:02 -1,2 C -1,7 C -1,1 C 98 % 1033,8 hPa 0,0 l/m 0 min 0 min 10 W/m 6,4 km/h (2 Bft) 100,00 %
11.01.2022 09:04 -1,2 C -1,7 C -1,1 C 98 % 1033,8 hPa 0,0 l/m 0 min 0 min 11 W/m 16,1 km/h (3 Bft) 100,00 %
11.01.2022 09:06 -1,2 C -1,7 C -1,1 C 98 % 1033,8 hPa 0,0 l/m 0 min 0 min 12 W/m 16,1 km/h (3 Bft) 97,87 %
11.01.2022 09:08 -1,2 C -1,7 C -1,1 C 98 % 1033,8 hPa 0,0 l/m 0 min 0 min 12 W/m 9,7 km/h (2 Bft) 97,87 %
11.01.2022 09:10 -1,2 C -1,7 C -1,1 C 98 % 1033,9 hPa 0,0 l/m 0 min 0 min 13 W/m 9,7 km/h (2 Bft) 91,30 %
11.01.2022 09:12 -1,2 C -1,7 C -1,1 C 98 % 1033,9 hPa 0,0 l/m 0 min 0 min 14 W/m 6,4 km/h (2 Bft) 95,74 %
11.01.2022 09:14 -1,1 C -1,7 C -1,1 C 98 % 1033,9 hPa 0,0 l/m 0 min 0 min 15 W/m 12,9 km/h (3 Bft) 95,74 %
11.01.2022 09:16 -1,1 C -1,7 C -0,6 C 98 % 1033,9 hPa 0,0 l/m 0 min 0 min 15 W/m 6,4 km/h (2 Bft) 95,74 %
11.01.2022 09:18 -1,1 C -1,7 C -1,1 C 99 % 1033,9 hPa 0,0 l/m 0 min 0 min 17 W/m 12,9 km/h (3 Bft) 95,74 %
11.01.2022 09:20 -1,1 C -1,7 C -1,1 C 99 % 1033,9 hPa 0,0 l/m 0 min 0 min 18 W/m 19,3 km/h (3 Bft) 95,74 %
11.01.2022 09:22 -1,1 C -1,7 C -1,1 C 99 % 1033,9 hPa 0,0 l/m 0 min 0 min 19 W/m 6,4 km/h (2 Bft) 95,65 %
11.01.2022 09:24 -1,1 C -1,7 C -0,6 C 99 % 1034,0 hPa 0,0 l/m 0 min 0 min 21 W/m 12,9 km/h (3 Bft) 95,74 %
11.01.2022 09:26 -1,1 C -1,7 C -0,6 C 99 % 1034,0 hPa 0,0 l/m 0 min 0 min 19 W/m 12,9 km/h (3 Bft) 91,49 %
11.01.2022 09:28 -1,1 C -1,7 C -0,6 C 99 % 1034,1 hPa 0,0 l/m 0 min 0 min 20 W/m 6,4 km/h (2 Bft) 93,62 %
11.01.2022 09:30 -1,1 C -1,7 C -0,6 C 99 % 1034,1 hPa 0,0 l/m 0 min 0 min 21 W/m 16,1 km/h (3 Bft) 95,74 %
11.01.2022 09:32 -1,1 C -1,7 C -1,1 C 99 % 1034,1 hPa 0,0 l/m 0 min 0 min 24 W/m 16,1 km/h (3 Bft) 91,49 %
11.01.2022 09:34 -1,1 C -1,7 C -1,1 C 99 % 1034,2 hPa 0,0 l/m 0 min 0 min 25 W/m 6,4 km/h (2 Bft) 93,48 %
11.01.2022 09:35 -1,1 C -1,7 C -0,6 C 99 % 1034,3 hPa 0,0 l/m 0 min 0 min 25 W/m 16,1 km/h (3 Bft) 96,49 %
11.01.2022 09:40 -1,1 C -1,7 C -0,6 C 99 % 1034,2 hPa 0,0 l/m 0 min 0 min 35 W/m 12,9 km/h (3 Bft) 81,29 %
11.01.2022 09:42 -1,1 C -1,7 C -0,6 C 99 % 1034,3 hPa 0,0 l/m 0 min 0 min 27 W/m 12,9 km/h (3 Bft) 97,83 %
11.01.2022 09:44 -1,1 C -1,7 C -1,1 C 99 % 1034,3 hPa 0,0 l/m 0 min 0 min 28 W/m 12,9 km/h (3 Bft) 95,74 %
11.01.2022 09:46 -1,1 C -1,7 C -1,1 C 99 % 1034,3 hPa 0,0 l/m 0 min 0 min 30 W/m 9,7 km/h (2 Bft) 93,48 %
11.01.2022 09:48 -1,1 C -1,7 C -1,1 C 99 % 1034,2 hPa 0,0 l/m 0 min 0 min 34 W/m 12,9 km/h (3 Bft) 93,62 %
11.01.2022 09:50 -1,2 C -1,7 C -1,1 C 99 % 1034,3 hPa 0,0 l/m 0 min 0 min 41 W/m 9,7 km/h (2 Bft) 95,74 %
11.01.2022 09:52 -1,2 C -1,7 C -1,1 C 99 % 1034,2 hPa 0,0 l/m 0 min 0 min 45 W/m 16,1 km/h (3 Bft) 93,62 %
11.01.2022 09:54 -1,2 C -1,7 C -1,1 C 99 % 1034,3 hPa 0,0 l/m 0 min 0 min 50 W/m 16,1 km/h (3 Bft) 95,74 %
11.01.2022 09:56 -1,2 C -1,7 C -1,1 C 99 % 1034,2 hPa 0,0 l/m 0 min 0 min 50 W/m 19,3 km/h (3 Bft) 95,74 %
11.01.2022 09:58 -1,2 C -1,7 C -1,1 C 99 % 1034,3 hPa 0,0 l/m 0 min 0 min 47 W/m 12,9 km/h (3 Bft) 95,92 %
11.01.2022 10:00 -1,2 C -1,7 C -1,1 C 99 % 1034,3 hPa 0,0 l/m 0 min 0 min 50 W/m 16,1 km/h (3 Bft) 95,74 %
11.01.2022 10:02 -1,2 C -1,7 C -1,1 C 99 % 1034,3 hPa 0,0 l/m 0 min 0 min 47 W/m 16,1 km/h (3 Bft) 97,87 %
11.01.2022 10:04 -1,2 C -1,7 C -1,1 C 99 % 1034,2 hPa 0,0 l/m 0 min 0 min 46 W/m 12,9 km/h (3 Bft) 97,92 %
11.01.2022 10:06 -1,2 C -1,7 C -1,1 C 99 % 1034,2 hPa 0,0 l/m 0 min 0 min 51 W/m 6,4 km/h (2 Bft) 95,74 %
11.01.2022 10:08 -1,2 C -1,7 C -0,6 C 99 % 1034,2 hPa 0,0 l/m 0 min 0 min 53 W/m 9,7 km/h (2 Bft) 95,74 %
11.01.2022 10:10 -1,2 C -1,7 C -0,6 C 99 % 1034,2 hPa 0,0 l/m 0 min 0 min 56 W/m 6,4 km/h (2 Bft) 95,74 %
11.01.2022 10:12 -1,2 C -1,7 C -0,6 C 99 % 1034,3 hPa 0,0 l/m 0 min 0 min 57 W/m 12,9 km/h (3 Bft) 95,74 %
11.01.2022 10:14 -1,2 C -1,7 C -0,6 C 99 % 1034,3 hPa 0,0 l/m 0 min 0 min 53 W/m 12,9 km/h (3 Bft) 97,83 %
11.01.2022 10:16 -1,2 C -1,7 C -1,1 C 99 % 1034,2 hPa 0,0 l/m 0 min 0 min 52 W/m 12,9 km/h (3 Bft) 97,87 %
11.01.2022 10:18 -1,2 C -1,7 C -0,6 C 99 % 1034,3 hPa 0,0 l/m 0 min 0 min 53 W/m 12,9 km/h (3 Bft) 97,87 %
11.01.2022 10:20 -1,2 C -1,7 C -0,6 C 99 % 1034,3 hPa 0,0 l/m 0 min 0 min 57 W/m 12,9 km/h (3 Bft) 97,87 %
11.01.2022 10:22 -1,2 C -1,7 C -0,6 C 99 % 1034,3 hPa 0,0 l/m 0 min 0 min 67 W/m 12,9 km/h (3 Bft) 97,87 %
11.01.2022 10:24 -1,2 C -1,7 C -0,6 C 99 % 1034,3 hPa 0,0 l/m 0 min 0 min 68 W/m 12,9 km/h (3 Bft) 97,87 %
11.01.2022 10:26 -1,2 C -1,7 C -0,6 C 99 % 1034,3 hPa 0,0 l/m 0 min 0 min 72 W/m 9,7 km/h (2 Bft) 100,00 %
11.01.2022 10:28 -1,2 C -1,7 C -0,6 C 99 % 1034,3 hPa 0,0 l/m 0 min 0 min 69 W/m 12,9 km/h (3 Bft) 97,83 %
11.01.2022 10:30 -1,2 C -1,1 C -0,6 C 99 % 1034,3 hPa 0,0 l/m 0 min 0 min 71 W/m 6,4 km/h (2 Bft) 100,00 %
11.01.2022 10:32 -1,1 C -1,1 C -0,6 C 99 % 1034,4 hPa 0,0 l/m 0 min 0 min 73 W/m 12,9 km/h (3 Bft) 100,00 %
11.01.2022 10:34 -1,1 C -1,1 C -0,6 C 99 % 1034,4 hPa 0,0 l/m 0 min 0 min 76 W/m 6,4 km/h (2 Bft) 100,00 %
11.01.2022 10:36 -1,1 C -1,1 C -0,6 C 99 % 1034,4 hPa 0,0 l/m 0 min 0 min 79 W/m 9,7 km/h (2 Bft) 100,00 %
11.01.2022 10:38 -1,1 C -1,1 C -0,6 C 99 % 1034,4 hPa 0,0 l/m 0 min 0 min 84 W/m 6,4 km/h (2 Bft) 100,00 %
11.01.2022 10:40 -1,1 C -1,1 C -0,6 C 99 % 1034,4 hPa 0,0 l/m 0 min 0 min 86 W/m 12,9 km/h (3 Bft) 100,00 %
11.01.2022 10:42 -1,0 C -1,1 C -0,6 C 99 % 1034,3 hPa 0,0 l/m 0 min 0 min 82 W/m 12,9 km/h (3 Bft) 100,00 %
11.01.2022 10:44 -1,0 C -1,1 C -0,6 C 99 % 1034,4 hPa 0,0 l/m 0 min 0 min 84 W/m 16,1 km/h (3 Bft) 100,00 %
11.01.2022 10:46 -1,0 C -1,1 C -0,6 C 99 % 1034,4 hPa 0,0 l/m 0 min 0 min 97 W/m 12,9 km/h (3 Bft) 97,87 %
11.01.2022 10:48 -0,9 C -1,1 C -0,6 C 99 % 1034,3 hPa 0,0 l/m 0 min 0 min 113 W/m 12,9 km/h (3 Bft) 100,00 %
11.01.2022 10:50 -0,9 C -1,1 C -0,6 C 99 % 1034,3 hPa 0,0 l/m 0 min 0 min 117 W/m 12,9 km/h (3 Bft) 97,87 %
11.01.2022 10:52 -0,9 C -1,1 C -0,6 C 99 % 1034,3 hPa 0,0 l/m 0 min 0 min 112 W/m 16,1 km/h (3 Bft) 100,00 %
11.01.2022 10:54 -0,9 C -1,1 C -0,6 C 99 % 1034,3 hPa 0,0 l/m 0 min 0 min 105 W/m 12,9 km/h (3 Bft) 97,87 %
11.01.2022 10:56 -0,9 C -1,1 C -0,6 C 99 % 1034,4 hPa 0,0 l/m 0 min 0 min 121 W/m 19,3 km/h (3 Bft) 100,00 %
11.01.2022 10:58 -0,9 C -1,1 C -0,6 C 99 % 1034,3 hPa 0,0 l/m 0 min 0 min 115 W/m 12,9 km/h (3 Bft) 100,00 %
11.01.2022 11:00 -0,9 C -1,1 C -0,6 C 99 % 1034,4 hPa 0,0 l/m 0 min 0 min 118 W/m 16,1 km/h (3 Bft) 100,00 %
11.01.2022 11:02 -0,9 C -1,1 C 0,0 C 99 % 1034,4 hPa 0,0 l/m 0 min 0 min 117 W/m 12,9 km/h (3 Bft) 100,00 %
11.01.2022 11:04 -0,9 C -1,1 C -0,6 C 99 % 1034,4 hPa 0,0 l/m 0 min 0 min 111 W/m 16,1 km/h (3 Bft) 100,00 %
11.01.2022 11:06 -0,8 C -1,1 C -0,6 C 99 % 1034,4 hPa 0,0 l/m 0 min 0 min 113 W/m 9,7 km/h (2 Bft) 97,87 %
11.01.2022 11:08 -0,8 C -1,1 C -0,6 C 99 % 1034,4 hPa 0,0 l/m 0 min 0 min 118 W/m 16,1 km/h (3 Bft) 97,87 %
11.01.2022 11:10 -0,8 C -1,1 C -0,6 C 99 % 1034,5 hPa 0,0 l/m 0 min 0 min 116 W/m 12,9 km/h (3 Bft) 97,87 %
11.01.2022 11:12 -0,8 C -1,1 C 0,0 C 99 % 1034,5 hPa 0,0 l/m 0 min 0 min 115 W/m 6,4 km/h (2 Bft) 97,83 %
11.01.2022 11:14 -0,8 C -0,6 C 0,0 C 99 % 1034,4 hPa 0,0 l/m 0 min 0 min 118 W/m 12,9 km/h (3 Bft) 93,62 %
11.01.2022 11:16 -0,8 C -0,6 C 0,0 C 99 % 1034,5 hPa 0,0 l/m 0 min 0 min 123 W/m 12,9 km/h (3 Bft) 97,87 %
11.01.2022 11:18 -0,8 C -0,6 C 0,0 C 99 % 1034,5 hPa 0,0 l/m 0 min 0 min 139 W/m 12,9 km/h (3 Bft) 97,87 %
11.01.2022 11:20 -0,7 C -0,6 C 0,0 C 99 % 1034,5 hPa 0,0 l/m 0 min 0 min 135 W/m 12,9 km/h (3 Bft) 97,87 %
11.01.2022 11:22 -0,7 C -0,6 C 0,0 C 99 % 1034,5 hPa 0,0 l/m 0 min 0 min 127 W/m 6,4 km/h (2 Bft) 97,87 %
11.01.2022 11:24 -0,7 C -0,6 C 0,0 C 99 % 1034,5 hPa 0,0 l/m 0 min 0 min 129 W/m 9,7 km/h (2 Bft) 95,65 %
11.01.2022 11:26 -0,6 C -0,6 C 0,0 C 99 % 1034,5 hPa 0,0 l/m 0 min 0 min 125 W/m 12,9 km/h (3 Bft) 97,87 %
11.01.2022 11:28 -0,6 C -0,6 C 0,0 C 99 % 1034,5 hPa 0,0 l/m 0 min 0 min 123 W/m 12,9 km/h (3 Bft) 95,74 %
11.01.2022 11:30 -0,6 C -0,6 C 0,0 C 99 % 1034,4 hPa 0,0 l/m 0 min 0 min 128 W/m 16,1 km/h (3 Bft) 97,87 %
11.01.2022 11:32 -0,6 C -0,6 C 0,0 C 99 % 1034,4 hPa 0,0 l/m 0 min 0 min 123 W/m 12,9 km/h (3 Bft) 95,74 %
11.01.2022 11:34 -0,6 C -0,6 C 0,0 C 99 % 1034,5 hPa 0,0 l/m 0 min 0 min 110 W/m 12,9 km/h (3 Bft) 97,87 %
11.01.2022 11:36 -0,5 C 0,0 C 0,0 C 99 % 1034,4 hPa 0,0 l/m 0 min 0 min 118 W/m 12,9 km/h (3 Bft) 97,83 %
11.01.2022 11:38 -0,5 C -0,6 C 0,0 C 99 % 1034,4 hPa 0,0 l/m 0 min 0 min 129 W/m 16,1 km/h (3 Bft) 93,62 %
11.01.2022 11:40 -0,5 C -0,6 C 0,0 C 99 % 1034,4 hPa 0,0 l/m 0 min 0 min 118 W/m 12,9 km/h (3 Bft) 97,87 %
11.01.2022 11:42 -0,5 C -0,6 C 0,0 C 99 % 1034,4 hPa 0,0 l/m 0 min 0 min 122 W/m 12,9 km/h (3 Bft) 100,00 %
11.01.2022 11:44 -0,4 C -0,6 C 0,0 C 99 % 1034,4 hPa 0,0 l/m 0 min 0 min 125 W/m 12,9 km/h (3 Bft) 100,00 %
11.01.2022 11:46 -0,4 C -0,6 C 0,0 C 99 % 1034,4 hPa 0,0 l/m 0 min 0 min 110 W/m 12,9 km/h (3 Bft) 97,87 %
11.01.2022 11:48 -0,4 C -0,6 C 0,0 C 99 % 1034,4 hPa 0,0 l/m 0 min 0 min 106 W/m 16,1 km/h (3 Bft) 100,00 %
11.01.2022 11:50 -0,4 C -0,6 C 0,0 C 99 % 1034,4 hPa 0,0 l/m 0 min 0 min 119 W/m 12,9 km/h (3 Bft) 100,00 %
11.01.2022 11:52 -0,4 C -0,6 C 0,0 C 99 % 1034,5 hPa 0,0 l/m 0 min 0 min 119 W/m 12,9 km/h (3 Bft) 97,87 %
11.01.2022 11:54 -0,4 C -0,6 C 0,0 C 99 % 1034,4 hPa 0,0 l/m 0 min 0 min 103 W/m 12,9 km/h (3 Bft) 97,87 %
11.01.2022 11:56 -0,4 C -0,6 C 0,0 C 99 % 1034,5 hPa 0,0 l/m 0 min 0 min 96 W/m 6,4 km/h (2 Bft) 100,00 %
11.01.2022 11:58 -0,4 C -0,6 C 0,0 C 99 % 1034,5 hPa 0,0 l/m 0 min 0 min 96 W/m 12,9 km/h (3 Bft) 100,00 %
11.01.2022 12:00 -0,4 C -0,6 C 0,0 C 99 % 1034,5 hPa 0,0 l/m 0 min 0 min 101 W/m 9,7 km/h (2 Bft) 100,00 %
11.01.2022 12:02 -0,4 C -0,6 C 0,0 C 99 % 1034,5 hPa 0,0 l/m 0 min 0 min 113 W/m 12,9 km/h (3 Bft) 97,87 %
11.01.2022 12:04 -0,4 C -0,6 C 0,0 C 99 % 1034,4 hPa 0,0 l/m 0 min 0 min 127 W/m 16,1 km/h (3 Bft) 95,74 %
11.01.2022 12:08 -0,4 C 0,0 C 0,0 C 99 % 1034,4 hPa 0,0 l/m 0 min 0 min 138 W/m 9,7 km/h (2 Bft) 96,84 %
11.01.2022 12:10 -0,4 C 0,0 C 0,6 C 99 % 1034,4 hPa 0,0 l/m 0 min 0 min 143 W/m 6,4 km/h (2 Bft) 97,87 %
11.01.2022 12:12 -0,4 C 0,0 C 0,6 C 99 % 1034,5 hPa 0,0 l/m 0 min 0 min 142 W/m 16,1 km/h (3 Bft) 95,74 %
11.01.2022 12:14 -0,4 C 0,0 C 0,6 C 99 % 1034,6 hPa 0,0 l/m 0 min 0 min 152 W/m 12,9 km/h (3 Bft) 95,74 %
11.01.2022 12:16 -0,4 C 0,0 C 0,0 C 99 % 1034,5 hPa 0,0 l/m 0 min 0 min 140 W/m 16,1 km/h (3 Bft) 93,48 %
11.01.2022 12:18 -0,4 C 0,0 C 0,0 C 99 % 1034,6 hPa 0,0 l/m 0 min 0 min 126 W/m 12,9 km/h (3 Bft) 93,62 %
11.01.2022 12:20 -0,4 C 0,0 C 0,0 C 99 % 1034,5 hPa 0,0 l/m 0 min 0 min 129 W/m 9,7 km/h (2 Bft) 95,74 %
11.01.2022 12:22 -0,4 C 0,0 C 0,0 C 99 % 1034,5 hPa 0,0 l/m 0 min 0 min 122 W/m 12,9 km/h (3 Bft) 93,62 %
11.01.2022 12:24 -0,4 C 0,0 C 0,0 C 99 % 1034,5 hPa 0,0 l/m 0 min 0 min 126 W/m 16,1 km/h (3 Bft) 93,62 %
11.01.2022 12:26 -0,4 C 0,0 C 0,0 C 99 % 1034,6 hPa 0,0 l/m 0 min 0 min 151 W/m 16,1 km/h (3 Bft) 95,74 %
11.01.2022 12:28 -0,4 C 0,0 C 0,6 C 99 % 1034,6 hPa 0,0 l/m 0 min 0 min 137 W/m 6,4 km/h (2 Bft) 95,65 %
11.01.2022 12:30 -0,4 C 0,0 C 0,6 C 99 % 1034,6 hPa 0,0 l/m 0 min 0 min 144 W/m 6,4 km/h (2 Bft) 95,74 %
11.01.2022 12:32 -0,4 C 0,0 C 0,6 C 99 % 1034,7 hPa 0,0 l/m 0 min 0 min 146 W/m 12,9 km/h (3 Bft) 95,74 %
11.01.2022 12:34 -0,3 C 0,6 C 0,6 C 99 % 1034,7 hPa 0,0 l/m 2 min 0 min 168 W/m 12,9 km/h (3 Bft) 93,62 %
11.01.2022 12:36 -0,3 C 0,6 C 0,6 C 99 % 1034,6 hPa 0,0 l/m 2 min 0 min 180 W/m 16,1 km/h (3 Bft) 95,74 %
11.01.2022 12:38 -0,3 C 0,6 C 0,6 C 99 % 1034,7 hPa 0,0 l/m 0 min 0 min 149 W/m 16,1 km/h (3 Bft) 95,74 %
11.01.2022 12:40 -0,2 C 0,6 C 0,6 C 99 % 1034,7 hPa 0,0 l/m 0 min 0 min 150 W/m 6,4 km/h (2 Bft) 95,65 %
11.01.2022 12:42 -0,2 C 0,6 C 0,6 C 99 % 1034,6 hPa 0,0 l/m 0 min 0 min 158 W/m 6,4 km/h (2 Bft) 95,74 %
11.01.2022 12:44 -0,2 C 1,1 C 0,6 C 99 % 1034,6 hPa 0,0 l/m 2 min 0 min 205 W/m 6,4 km/h (2 Bft) 95,74 %
11.01.2022 12:46 -0,1 C 1,1 C 0,6 C 99 % 1034,6 hPa 0,0 l/m 2 min 0 min 167 W/m 12,9 km/h (3 Bft) 95,74 %
11.01.2022 12:48 -0,1 C 1,1 C 0,6 C 99 % 1034,6 hPa 0,0 l/m 0 min 0 min 122 W/m 12,9 km/h (3 Bft) 93,62 %
11.01.2022 12:50 -0,1 C 0,6 C 0,6 C 99 % 1034,6 hPa 0,0 l/m 0 min 0 min 119 W/m 9,7 km/h (2 Bft) 97,87 %
11.01.2022 12:52 0,0 C 0,6 C 0,6 C 99 % 1034,6 hPa 0,0 l/m 0 min 0 min 125 W/m 9,7 km/h (2 Bft) 100,00 %
11.01.2022 12:54 0,0 C 0,6 C 0,6 C 99 % 1034,6 hPa 0,0 l/m 0 min 0 min 139 W/m 12,9 km/h (3 Bft) 97,87 %
11.01.2022 12:56 0,0 C 0,6 C 0,6 C 99 % 1034,5 hPa 0,0 l/m 0 min 0 min 114 W/m 12,9 km/h (3 Bft) 100,00 %
11.01.2022 12:58 0,1 C 0,6 C 1,1 C 99 % 1034,5 hPa 0,0 l/m 0 min 0 min 119 W/m 6,4 km/h (2 Bft) 100,00 %
11.01.2022 13:00 0,1 C 1,1 C 1,1 C 99 % 1034,5 hPa 0,0 l/m 0 min 0 min 140 W/m 6,4 km/h (2 Bft) 97,87 %
11.01.2022 13:02 0,1 C 1,1 C 1,1 C 99 % 1034,5 hPa 0,0 l/m 0 min 0 min 155 W/m 6,4 km/h (2 Bft) 97,14 %
11.01.2022 13:04 0,1 C 1,1 C 1,1 C 99 % 1034,5 hPa 0,0 l/m 0 min 0 min 113 W/m 6,4 km/h (2 Bft) 100,00 %
11.01.2022 13:06 0,2 C 1,1 C 1,1 C 99 % 1034,5 hPa 0,0 l/m 0 min 0 min 136 W/m 6,4 km/h (2 Bft) 100,00 %
11.01.2022 13:08 0,2 C 1,1 C 1,1 C 99 % 1034,5 hPa 0,0 l/m 0 min 0 min 140 W/m 12,9 km/h (3 Bft) 97,83 %
11.01.2022 13:10 0,2 C 1,7 C 1,1 C 99 % 1034,5 hPa 0,0 l/m 2 min 0 min 167 W/m 6,4 km/h (2 Bft) 97,87 %
11.01.2022 13:12 0,3 C 1,7 C 1,1 C 99 % 1034,5 hPa 0,0 l/m 2 min 0 min 196 W/m 16,1 km/h (3 Bft) 97,87 %
11.01.2022 13:14 0,3 C 1,1 C 1,1 C 99 % 1034,5 hPa 0,0 l/m 0 min 0 min 161 W/m 16,1 km/h (3 Bft) 95,74 %
11.01.2022 13:16 0,3 C 1,1 C 1,1 C 99 % 1034,4 hPa 0,0 l/m 0 min 0 min 148 W/m 12,9 km/h (3 Bft) 97,87 %
11.01.2022 13:18 0,3 C 1,7 C 1,1 C 99 % 1034,5 hPa 0,0 l/m 2 min 0 min 162 W/m 6,4 km/h (2 Bft) 97,83 %
11.01.2022 13:20 0,3 C 1,7 C 1,1 C 99 % 1034,4 hPa 0,0 l/m 2 min 0 min 161 W/m 6,4 km/h (2 Bft) 95,74 %
11.01.2022 13:22 0,4 C 1,7 C 1,1 C 99 % 1034,4 hPa 0,0 l/m 0 min 0 min 141 W/m 6,4 km/h (2 Bft) 97,87 %
11.01.2022 13:24 0,4 C 1,1 C 1,1 C 99 % 1034,4 hPa 0,0 l/m 0 min 0 min 138 W/m 9,7 km/h (2 Bft) 97,87 %
11.01.2022 13:26 0,4 C 1,1 C 1,1 C 99 % 1034,5 hPa 0,0 l/m 0 min 0 min 130 W/m 12,9 km/h (3 Bft) 97,87 %
11.01.2022 13:28 0,4 C 1,1 C 1,1 C 99 % 1034,4 hPa 0,0 l/m 0 min 0 min 115 W/m 16,1 km/h (3 Bft) 97,87 %
11.01.2022 13:30 0,4 C 1,1 C 1,1 C 99 % 1034,4 hPa 0,0 l/m 0 min 0 min 140 W/m 12,9 km/h (3 Bft) 97,87 %
11.01.2022 13:32 0,4 C 1,1 C 1,1 C 99 % 1034,4 hPa 0,0 l/m 0 min 0 min 136 W/m 9,7 km/h (2 Bft) 97,83 %
11.01.2022 13:34 0,4 C 1,1 C 1,1 C 99 % 1034,4 hPa 0,0 l/m 0 min 0 min 127 W/m 9,7 km/h (2 Bft) 97,87 %
11.01.2022 13:36 0,4 C 1,1 C 1,1 C 99 % 1034,4 hPa 0,0 l/m 0 min 0 min 112 W/m 12,9 km/h (3 Bft) 97,87 %
11.01.2022 13:38 0,4 C 1,1 C 1,1 C 99 % 1034,3 hPa 0,0 l/m 0 min 0 min 98 W/m 12,9 km/h (3 Bft) 97,87 %
11.01.2022 13:40 0,4 C 0,6 C 1,1 C 99 % 1034,3 hPa 0,0 l/m 0 min 0 min 98 W/m 9,7 km/h (2 Bft) 97,87 %
11.01.2022 13:42 0,4 C 0,6 C 1,1 C 99 % 1034,3 hPa 0,0 l/m 0 min 0 min 127 W/m 16,1 km/h (3 Bft) 100,00 %
11.01.2022 13:44 0,4 C 1,1 C 1,1 C 99 % 1034,2 hPa 0,0 l/m 0 min 0 min 145 W/m 12,9 km/h (3 Bft) 100,00 %
11.01.2022 13:46 0,4 C 1,1 C 1,1 C 99 % 1034,3 hPa 0,0 l/m 0 min 0 min 151 W/m 12,9 km/h (3 Bft) 100,00 %
11.01.2022 13:48 0,4 C 1,1 C 1,1 C 99 % 1034,3 hPa 0,0 l/m 0 min 0 min 135 W/m 6,4 km/h (2 Bft) 100,00 %
11.01.2022 13:50 0,4 C 1,1 C 1,1 C 99 % 1034,3 hPa 0,0 l/m 0 min 0 min 117 W/m 9,7 km/h (2 Bft) 100,00 %
11.01.2022 13:52 0,4 C 0,6 C 1,1 C 99 % 1034,3 hPa 0,0 l/m 0 min 0 min 100 W/m 16,1 km/h (3 Bft) 100,00 %
11.01.2022 13:54 0,4 C 0,6 C 0,6 C 99 % 1034,3 hPa 0,0 l/m 0 min 0 min 95 W/m 19,3 km/h (3 Bft) 100,00 %
11.01.2022 13:56 0,4 C 0,6 C 0,6 C 99 % 1034,3 hPa 0,0 l/m 0 min 0 min 85 W/m 16,1 km/h (3 Bft) 97,87 %
11.01.2022 13:58 0,4 C 0,6 C 0,6 C 99 % 1034,2 hPa 0,0 l/m 0 min 0 min 85 W/m 12,9 km/h (3 Bft) 100,00 %
11.01.2022 14:00 0,3 C 0,6 C 0,6 C 99 % 1034,1 hPa 0,0 l/m 0 min 0 min 112 W/m 12,9 km/h (3 Bft) 100,00 %
11.01.2022 14:02 0,3 C 0,6 C 1,1 C 99 % 1034,1 hPa 0,0 l/m 0 min 0 min 133 W/m 12,9 km/h (3 Bft) 100,00 %
11.01.2022 14:04 0,3 C 0,6 C 1,1 C 99 % 1034,1 hPa 0,0 l/m 0 min 0 min 111 W/m 16,1 km/h (3 Bft) 100,00 %
11.01.2022 14:06 0,4 C 0,6 C 1,1 C 99 % 1034,1 hPa 0,0 l/m 0 min 0 min 110 W/m 12,9 km/h (3 Bft) 100,00 %
11.01.2022 14:08 0,4 C 1,1 C 1,1 C 99 % 1034,2 hPa 0,0 l/m 0 min 0 min 117 W/m 12,9 km/h (3 Bft) 100,00 %
11.01.2022 14:10 0,4 C 0,6 C 1,1 C 99 % 1034,1 hPa 0,0 l/m 0 min 0 min 108 W/m 12,9 km/h (3 Bft) 100,00 %
11.01.2022 14:12 0,4 C 0,6 C 1,1 C 99 % 1034,2 hPa 0,0 l/m 0 min 0 min 98 W/m 12,9 km/h (3 Bft) 97,87 %
11.01.2022 14:14 0,4 C 1,1 C 1,1 C 99 % 1034,1 hPa 0,0 l/m 2 min 0 min 161 W/m 12,9 km/h (3 Bft) 100,00 %
11.01.2022 14:16 0,4 C 1,7 C 1,1 C 99 % 1034,1 hPa 0,0 l/m 2 min 0 min 182 W/m 6,4 km/h (2 Bft) 97,87 %
11.01.2022 14:18 0,5 C 1,7 C 1,1 C 99 % 1034,1 hPa 0,0 l/m 2 min 0 min 182 W/m 12,9 km/h (3 Bft) 100,00 %
11.01.2022 14:20 0,6 C 1,7 C 1,1 C 99 % 1034,2 hPa 0,0 l/m 2 min 0 min 148 W/m 6,4 km/h (2 Bft) 100,00 %
11.01.2022 14:22 0,6 C 1,7 C 1,1 C 99 % 1034,1 hPa 0,0 l/m 0 min 0 min 115 W/m 6,4 km/h (2 Bft) 97,87 %
11.01.2022 14:24 0,6 C 1,7 C 1,1 C 99 % 1034,1 hPa 0,0 l/m 0 min 0 min 114 W/m 6,4 km/h (2 Bft) 100,00 %
11.01.2022 14:26 0,6 C 1,7 C 1,1 C 99 % 1034,1 hPa 0,0 l/m 2 min 0 min 139 W/m 6,4 km/h (2 Bft) 100,00 %
11.01.2022 14:28 0,6 C 1,7 C 1,1 C 99 % 1034,1 hPa 0,0 l/m 2 min 0 min 164 W/m 6,4 km/h (2 Bft) 100,00 %
11.01.2022 14:30 0,6 C 1,7 C 1,1 C 99 % 1034,1 hPa 0,0 l/m 0 min 0 min 118 W/m 6,4 km/h (2 Bft) 100,00 %
11.01.2022 14:32 0,7 C 1,7 C 1,1 C 99 % 1034,1 hPa 0,0 l/m 0 min 0 min 112 W/m 6,4 km/h (2 Bft) 97,87 %
11.01.2022 14:34 0,7 C 1,1 C 1,1 C 99 % 1034,1 hPa 0,0 l/m 0 min 0 min 121 W/m 16,1 km/h (3 Bft) 97,87 %
11.01.2022 14:36 0,7 C 1,1 C 1,1 C 99 % 1034,1 hPa 0,0 l/m 0 min 0 min 119 W/m 12,9 km/h (3 Bft) 97,87 %
11.01.2022 14:38 0,7 C 1,1 C 1,1 C 99 % 1034,0 hPa 0,0 l/m 2 min 0 min 141 W/m 6,4 km/h (2 Bft) 97,87 %
11.01.2022 14:40 0,7 C 1,1 C 1,1 C 99 % 1034,1 hPa 0,0 l/m 2 min 0 min 130 W/m 6,4 km/h (2 Bft) 97,87 %
11.01.2022 14:42 0,7 C 1,1 C 1,1 C 99 % 1034,0 hPa 0,0 l/m 2 min 0 min 128 W/m 6,4 km/h (2 Bft) 97,83 %
11.01.2022 14:44 0,7 C 1,1 C 1,1 C 99 % 1034,0 hPa 0,0 l/m 2 min 0 min 120 W/m 16,1 km/h (3 Bft) 97,87 %
11.01.2022 14:46 0,7 C 1,1 C 1,1 C 99 % 1034,1 hPa 0,0 l/m 2 min 0 min 126 W/m 6,4 km/h (2 Bft) 95,74 %
11.01.2022 14:48 0,7 C 1,1 C 1,1 C 99 % 1034,1 hPa 0,0 l/m 2 min 0 min 127 W/m 6,4 km/h (2 Bft) 95,74 %
11.01.2022 14:50 0,7 C 1,1 C 1,1 C 99 % 1034,1 hPa 0,0 l/m 0 min 0 min 114 W/m 6,4 km/h (2 Bft) 97,87 %
11.01.2022 14:52 0,8 C 1,7 C 1,1 C 99 % 1034,0 hPa 0,0 l/m 2 min 0 min 126 W/m 9,7 km/h (2 Bft) 97,87 %
11.01.2022 14:54 0,8 C 1,7 C 1,1 C 99 % 1034,1 hPa 0,0 l/m 2 min 0 min 153 W/m 12,9 km/h (3 Bft) 97,83 %
11.01.2022 14:56 0,8 C 1,7 C 1,1 C 99 % 1034,2 hPa 0,0 l/m 2 min 0 min 140 W/m 9,7 km/h (2 Bft) 95,74 %
11.01.2022 14:58 0,8 C 1,7 C 1,7 C 99 % 1034,2 hPa 0,0 l/m 2 min 0 min 150 W/m 3,2 km/h (1 Bft) 93,62 %
11.01.2022 15:00 0,9 C 1,7 C 1,7 C 99 % 1034,2 hPa 0,0 l/m 2 min 0 min 160 W/m 9,7 km/h (2 Bft) 95,74 %
11.01.2022 15:02 0,9 C 1,7 C 1,7 C 99 % 1034,2 hPa 0,0 l/m 2 min 0 min 153 W/m 6,4 km/h (2 Bft) 93,62 %
11.01.2022 15:04 0,9 C 1,7 C 1,7 C 99 % 1034,1 hPa 0,0 l/m 2 min 0 min 160 W/m 12,9 km/h (3 Bft) 82,98 %
11.01.2022 15:06 0,9 C 1,7 C 1,7 C 99 % 1034,1 hPa 0,0 l/m 2 min 0 min 168 W/m 6,4 km/h (2 Bft) 72,41 %
11.01.2022 15:08 1,0 C 2,2 C 1,7 C 99 % 1034,2 hPa 0,0 l/m 2 min 0 min 165 W/m 3,2 km/h (1 Bft) 94,29 %
11.01.2022 15:10 1,1 C 2,2 C 1,7 C 99 % 1034,2 hPa 0,0 l/m 2 min 0 min 99 W/m 9,7 km/h (2 Bft) 95,74 %
11.01.2022 15:12 1,1 C 1,7 C 1,7 C 99 % 1034,2 hPa 0,0 l/m 0 min 0 min 79 W/m 6,4 km/h (2 Bft) 97,87 %
11.01.2022 15:14 1,1 C 2,2 C 1,7 C 99 % 1034,2 hPa 0,0 l/m 2 min 0 min 123 W/m 3,2 km/h (1 Bft) 95,74 %
11.01.2022 15:16 1,1 C 2,2 C 1,7 C 99 % 1034,2 hPa 0,0 l/m 2 min 0 min 116 W/m 6,4 km/h (2 Bft) 91,30 %
11.01.2022 15:18 1,1 C 1,7 C 1,7 C 99 % 1034,2 hPa 0,0 l/m 2 min 0 min 97 W/m 3,2 km/h (1 Bft) 95,74 %
11.01.2022 15:20 1,2 C 1,7 C 1,7 C 99 % 1034,2 hPa 0,0 l/m 2 min 0 min 102 W/m 3,2 km/h (1 Bft) 95,74 %
11.01.2022 15:22 1,2 C 2,2 C 1,7 C 99 % 1034,2 hPa 0,0 l/m 2 min 0 min 136 W/m 3,2 km/h (1 Bft) 95,74 %
11.01.2022 15:24 1,2 C 2,2 C 1,7 C 99 % 1034,3 hPa 0,0 l/m 2 min 0 min 151 W/m 3,2 km/h (1 Bft) 95,74 %
11.01.2022 15:26 1,2 C 2,2 C 1,7 C 99 % 1034,3 hPa 0,0 l/m 2 min 0 min 127 W/m 6,4 km/h (2 Bft) 93,62 %
11.01.2022 15:28 1,3 C 2,2 C 1,7 C 99 % 1034,2 hPa 0,0 l/m 2 min 0 min 120 W/m 6,4 km/h (2 Bft) 95,65 %
11.01.2022 15:30 1,3 C 2,2 C 1,7 C 99 % 1034,2 hPa 0,0 l/m 2 min 0 min 105 W/m 3,2 km/h (1 Bft) 93,62 %
11.01.2022 15:32 1,3 C 2,2 C 1,7 C 99 % 1034,2 hPa 0,0 l/m 0 min 0 min 77 W/m 6,4 km/h (2 Bft) 95,74 %
11.01.2022 15:34 1,3 C 1,7 C 1,7 C 99 % 1034,2 hPa 0,0 l/m 0 min 0 min 70 W/m 9,7 km/h (2 Bft) 95,74 %
11.01.2022 15:36 1,3 C 1,7 C 1,7 C 99 % 1034,2 hPa 0,0 l/m 0 min 0 min 62 W/m 12,9 km/h (3 Bft) 93,62 %
11.01.2022 15:38 1,3 C 1,7 C 1,7 C 99 % 1034,2 hPa 0,0 l/m 0 min 0 min 56 W/m 6,4 km/h (2 Bft) 95,74 %
11.01.2022 15:40 1,3 C 1,1 C 1,7 C 99 % 1034,2 hPa 0,0 l/m 0 min 0 min 52 W/m 6,4 km/h (2 Bft) 97,83 %
11.01.2022 15:42 1,2 C 1,1 C 1,7 C 99 % 1034,2 hPa 0,0 l/m 0 min 0 min 48 W/m 12,9 km/h (3 Bft) 95,74 %
11.01.2022 15:44 1,2 C 1,1 C 1,7 C 99 % 1034,2 hPa 0,0 l/m 0 min 0 min 45 W/m 6,4 km/h (2 Bft) 93,62 %
11.01.2022 15:46 1,2 C 1,1 C 1,1 C 99 % 1034,2 hPa 0,0 l/m 0 min 0 min 41 W/m 6,4 km/h (2 Bft) 97,87 %
11.01.2022 15:48 1,2 C 1,1 C 1,1 C 99 % 1034,2 hPa 0,0 l/m 0 min 0 min 39 W/m 3,2 km/h (1 Bft) 97,87 %
11.01.2022 15:50 1,2 C 1,1 C 1,1 C 99 % 1034,2 hPa 0,0 l/m 0 min 0 min 40 W/m 3,2 km/h (1 Bft) 95,74 %
11.01.2022 15:52 1,2 C 1,1 C 1,1 C 99 % 1034,2 hPa 0,0 l/m 0 min 0 min 39 W/m 3,2 km/h (1 Bft) 97,83 %
11.01.2022 15:54 1,2 C 1,1 C 1,1 C 99 % 1034,3 hPa 0,0 l/m 0 min 0 min 37 W/m 6,4 km/h (2 Bft) 97,87 %
11.01.2022 15:56 1,2 C 1,1 C 1,1 C 99 % 1034,2 hPa 0,0 l/m 0 min 0 min 36 W/m 6,4 km/h (2 Bft) 100,00 %
11.01.2022 15:58 1,2 C 1,1 C 1,1 C 99 % 1034,2 hPa 0,0 l/m 0 min 0 min 34 W/m 3,2 km/h (1 Bft) 100,00 %
11.01.2022 16:00 1,1 C 1,1 C 1,1 C 99 % 1034,2 hPa 0,0 l/m 0 min 0 min 33 W/m 3,2 km/h (1 Bft) 100,00 %
11.01.2022 16:02 1,1 C 1,1 C 1,1 C 99 % 1034,2 hPa 0,0 l/m 0 min 0 min 32 W/m 6,4 km/h (2 Bft) 95,74 %
11.01.2022 16:04 1,1 C 1,1 C 1,1 C 99 % 1034,2 hPa 0,0 l/m 0 min 0 min 32 W/m 3,2 km/h (1 Bft) 100,00 %
11.01.2022 16:06 1,1 C 1,1 C 1,1 C 99 % 1034,2 hPa 0,0 l/m 0 min 0 min 30 W/m 6,4 km/h (2 Bft) 97,87 %
11.01.2022 16:08 1,1 C 0,6 C 1,1 C 99 % 1034,1 hPa 0,0 l/m 0 min 0 min 28 W/m 6,4 km/h (2 Bft) 100,00 %
11.01.2022 16:10 1,1 C 0,6 C 1,1 C 99 % 1034,1 hPa 0,0 l/m 0 min 0 min 26 W/m 3,2 km/h (1 Bft) 100,00 %
11.01.2022 16:12 1,1 C 0,6 C 1,1 C 99 % 1034,1 hPa 0,0 l/m 0 min 0 min 25 W/m 3,2 km/h (1 Bft) 100,00 %
11.01.2022 16:14 1,1 C 0,6 C 1,1 C 99 % 1034,1 hPa 0,0 l/m 0 min 0 min 22 W/m 12,9 km/h (3 Bft) 100,00 %
11.01.2022 16:16 1,1 C 0,6 C 1,1 C 99 % 1034,2 hPa 0,0 l/m 0 min 0 min 21 W/m 6,4 km/h (2 Bft) 100,00 %
11.01.2022 16:18 1,1 C 0,6 C 1,1 C 99 % 1034,2 hPa 0,0 l/m 0 min 0 min 20 W/m 6,4 km/h (2 Bft) 97,87 %
11.01.2022 16:20 1,1 C 0,6 C 1,1 C 99 % 1034,2 hPa 0,0 l/m 0 min 0 min 19 W/m 6,4 km/h (2 Bft) 100,00 %
11.01.2022 16:22 1,1 C 0,6 C 1,1 C 99 % 1034,2 hPa 0,0 l/m 0 min 0 min 18 W/m 6,4 km/h (2 Bft) 100,00 %
11.01.2022 16:24 1,1 C 0,6 C 1,1 C 99 % 1034,3 hPa 0,0 l/m 0 min 0 min 18 W/m 3,2 km/h (1 Bft) 100,00 %
11.01.2022 16:26 1,1 C 0,6 C 1,1 C 99 % 1034,3 hPa 0,0 l/m 0 min 0 min 16 W/m 3,2 km/h (1 Bft) 100,00 %
11.01.2022 16:28 1,1 C 0,6 C 1,1 C 99 % 1034,3 hPa 0,0 l/m 0 min 0 min 16 W/m 3,2 km/h (1 Bft) 100,00 %
11.01.2022 16:30 1,1 C 0,6 C 1,1 C 99 % 1034,3 hPa 0,0 l/m 0 min 0 min 16 W/m 6,4 km/h (2 Bft) 100,00 %
11.01.2022 16:32 1,1 C 0,6 C 1,1 C 99 % 1034,3 hPa 0,0 l/m 0 min 0 min 14 W/m 3,2 km/h (1 Bft) 100,00 %
11.01.2022 16:34 1,1 C 0,6 C 1,1 C 99 % 1034,3 hPa 0,0 l/m 0 min 0 min 14 W/m 3,2 km/h (1 Bft) 100,00 %
11.01.2022 16:36 1,1 C 0,6 C 1,1 C 99 % 1034,3 hPa 0,0 l/m 0 min 0 min 12 W/m 6,4 km/h (2 Bft) 97,87 %
11.01.2022 16:38 1,1 C 0,6 C 1,1 C 99 % 1034,2 hPa 0,0 l/m 0 min 0 min 12 W/m 3,2 km/h (1 Bft) 100,00 %
11.01.2022 16:40 1,1 C 0,6 C 1,1 C 99 % 1034,2 hPa 0,0 l/m 0 min 0 min 11 W/m 3,2 km/h (1 Bft) 95,65 %
11.01.2022 16:42 1,1 C 0,6 C 1,1 C 99 % 1034,2 hPa 0,0 l/m 0 min 0 min 9 W/m 6,4 km/h (2 Bft) 95,74 %
11.01.2022 16:44 1,1 C 0,6 C 1,1 C 99 % 1034,2 hPa 0,0 l/m 0 min 0 min 7 W/m 6,4 km/h (2 Bft) 97,87 %
11.01.2022 16:46 1,1 C 0,6 C 1,1 C 99 % 1034,2 hPa 0,0 l/m 0 min 0 min 7 W/m 3,2 km/h (1 Bft) 100,00 %
11.01.2022 16:48 1,1 C 0,6 C 1,1 C 99 % 1034,2 hPa 0,0 l/m 0 min 0 min 7 W/m 6,4 km/h (2 Bft) 100,00 %
11.01.2022 16:50 1,1 C 0,6 C 1,1 C 99 % 1034,2 hPa 0,0 l/m 0 min 0 min 5 W/m 3,2 km/h (1 Bft) 95,74 %
11.01.2022 16:52 1,1 C 0,6 C 1,1 C 99 % 1034,2 hPa 0,0 l/m 0 min 0 min 5 W/m 6,4 km/h (2 Bft) 97,83 %
11.01.2022 16:54 1,1 C 0,6 C 1,1 C 99 % 1034,2 hPa 0,0 l/m 0 min 0 min 5 W/m 3,2 km/h (1 Bft) 95,74 %
11.01.2022 16:56 1,0 C 0,6 C 1,1 C 99 % 1034,1 hPa 0,0 l/m 0 min 0 min 5 W/m 3,2 km/h (1 Bft) 95,74 %
11.01.2022 16:58 1,0 C 0,6 C 1,1 C 99 % 1034,1 hPa 0,0 l/m 0 min 0 min 5 W/m 3,2 km/h (1 Bft) 97,87 %
11.01.2022 17:00 1,0 C 0,6 C 1,1 C 99 % 1034,2 hPa 0,0 l/m 0 min 0 min 5 W/m 3,2 km/h (1 Bft) 97,87 %
11.01.2022 17:02 1,0 C 0,6 C 1,1 C 99 % 1034,2 hPa 0,0 l/m 0 min 0 min 1 W/m 0,0 km/h (0 Bft) 95,74 %
11.01.2022 17:04 1,0 C 0,6 C 0,6 C 99 % 1034,2 hPa 0,0 l/m 0 min 0 min 0 W/m 3,2 km/h (1 Bft) 97,83 %
11.01.2022 17:06 1,0 C 0,0 C 0,6 C 99 % 1034,3 hPa 0,0 l/m 0 min 0 min 0 W/m 3,2 km/h (1 Bft) 95,74 %
11.01.2022 17:08 1,0 C 0,0 C 0,6 C 99 % 1034,3 hPa 0,0 l/m 0 min 0 min 0 W/m 0,0 km/h (0 Bft) 97,87 %
11.01.2022 17:10 1,0 C 0,0 C 0,6 C 99 % 1034,3 hPa 0,0 l/m 0 min 0 min 0 W/m 0,0 km/h (0 Bft) 97,87 %
11.01.2022 17:12 0,9 C 0,0 C 0,6 C 99 % 1034,4 hPa 0,0 l/m 0 min 0 min 0 W/m 3,2 km/h (1 Bft) 97,87 %
11.01.2022 17:14 0,9 C 0,0 C 0,6 C 99 % 1034,4 hPa 0,0 l/m 0 min 0 min 0 W/m 3,2 km/h (1 Bft) 93,62 %
11.01.2022 17:16 0,9 C 0,0 C 0,6 C 99 % 1034,4 hPa 0,0 l/m 0 min 0 min 0 W/m 0,0 km/h (0 Bft) 95,65 %
11.01.2022 17:18 0,9 C 0,0 C 0,6 C 99 % 1034,4 hPa 0,0 l/m 0 min 0 min 0 W/m 3,2 km/h (1 Bft) 95,74 %
11.01.2022 17:20 0,9 C 0,0 C 0,0 C 99 % 1034,4 hPa 0,0 l/m 0 min 0 min 0 W/m 0,0 km/h (0 Bft) 95,74 %
11.01.2022 17:22 0,9 C 0,0 C 0,0 C 99 % 1034,4 hPa 0,0 l/m 0 min 0 min 0 W/m 0,0 km/h (0 Bft) 93,62 %
11.01.2022 17:24 0,9 C 0,0 C 0,0 C 99 % 1034,4 hPa 0,0 l/m 0 min 0 min 0 W/m 0,0 km/h (0 Bft) 95,74 %
11.01.2022 17:26 0,9 C -0,6 C 0,0 C 99 % 1034,4 hPa 0,0 l/m 0 min 0 min 0 W/m 0,0 km/h (0 Bft) 95,74 %
11.01.2022 17:28 0,9 C -0,6 C 0,0 C 99 % 1034,4 hPa 0,0 l/m 0 min 0 min 0 W/m 0,0 km/h (0 Bft) 95,65 %
11.01.2022 17:30 0,9 C -0,6 C 0,0 C 99 % 1034,4 hPa 0,0 l/m 0 min 0 min 0 W/m 0,0 km/h (0 Bft) 95,74 %
11.01.2022 17:32 0,8 C -0,6 C 0,0 C 99 % 1034,4 hPa 0,0 l/m 0 min 0 min 0 W/m 0,0 km/h (0 Bft) 95,74 %
11.01.2022 17:34 0,8 C -0,6 C 0,0 C 99 % 1034,4 hPa 0,0 l/m 0 min 0 min 0 W/m 0,0 km/h (0 Bft) 97,87 %
11.01.2022 17:36 0,8 C -0,6 C 0,0 C 99 % 1034,5 hPa 0,0 l/m 0 min 0 min 0 W/m 0,0 km/h (0 Bft) 97,87 %
11.01.2022 17:38 0,7 C -1,1 C 0,0 C 99 % 1034,5 hPa 0,0 l/m 0 min 0 min 0 W/m 0,0 km/h (0 Bft) 95,74 %
11.01.2022 17:40 0,7 C -1,1 C 0,0 C 99 % 1034,5 hPa 0,0 l/m 0 min 0 min 0 W/m 0,0 km/h (0 Bft) 97,83 %
11.01.2022 17:42 0,7 C -1,1 C 0,0 C 99 % 1034,5 hPa 0,0 l/m 0 min 0 min 0 W/m 0,0 km/h (0 Bft) 97,87 %
11.01.2022 17:44 0,6 C -1,1 C 0,0 C 99 % 1034,5 hPa 0,0 l/m 0 min 0 min 0 W/m 0,0 km/h (0 Bft) 97,87 %
11.01.2022 17:46 0,6 C -1,1 C -0,6 C 99 % 1034,5 hPa 0,0 l/m 0 min 0 min 0 W/m 0,0 km/h (0 Bft) 100,00 %
11.01.2022 17:48 0,6 C -0,6 C 0,0 C 99 % 1034,4 hPa 0,0 l/m 0 min 0 min 0 W/m 0,0 km/h (0 Bft) 100,00 %
11.01.2022 17:50 0,6 C -0,6 C 0,0 C 99 % 1034,4 hPa 0,0 l/m 0 min 0 min 0 W/m 0,0 km/h (0 Bft) 97,87 %
11.01.2022 17:52 0,6 C -0,6 C 0,0 C 99 % 1034,4 hPa 0,0 l/m 0 min 0 min 0 W/m 0,0 km/h (0 Bft) 100,00 %
11.01.2022 17:54 0,6 C -0,6 C 0,0 C 99 % 1034,5 hPa 0,0 l/m 0 min 0 min 0 W/m 0,0 km/h (0 Bft) 100,00 %
11.01.2022 17:56 0,6 C -0,6 C 0,0 C 99 % 1034,5 hPa 0,0 l/m 0 min 0 min 0 W/m 0,0 km/h (0 Bft) 100,00 %
11.01.2022 17:58 0,5 C -0,6 C 0,0 C 99 % 1034,5 hPa 0,0 l/m 0 min 0 min 0 W/m 0,0 km/h (0 Bft) 97,87 %
11.01.2022 18:00 0,4 C -0,6 C 0,0 C 99 % 1034,5 hPa 0,0 l/m 0 min 0 min 0 W/m 0,0 km/h (0 Bft) 97,87 %
11.01.2022 18:02 0,4 C -0,6 C 0,0 C 99 % 1034,5 hPa 0,0 l/m 0 min 0 min 0 W/m 0,0 km/h (0 Bft) 97,83 %
11.01.2022 18:04 0,4 C -0,6 C 0,0 C 99 % 1034,5 hPa 0,0 l/m 0 min 0 min 0 W/m 0,0 km/h (0 Bft) 95,74 %
11.01.2022 18:08 0,3 C -0,6 C -0,6 C 99 % 1034,6 hPa 0,0 l/m 0 min 0 min 0 W/m 0,0 km/h (0 Bft) 97,03 %
11.01.2022 18:10 0,3 C -1,1 C -0,6 C 99 % 1034,6 hPa 0,0 l/m 0 min 0 min 0 W/m 0,0 km/h (0 Bft) 95,74 %
11.01.2022 18:12 0,3 C -0,6 C 0,0 C 99 % 1034,6 hPa 0,0 l/m 0 min 0 min 0 W/m 0,0 km/h (0 Bft) 97,87 %
11.01.2022 18:14 0,3 C -1,1 C 0,0 C 99 % 1034,7 hPa 0,0 l/m 0 min 0 min 0 W/m 0,0 km/h (0 Bft) 97,87 %
11.01.2022 18:16 0,2 C -1,1 C -0,6 C 99 % 1034,7 hPa 0,0 l/m 0 min 0 min 0 W/m 0,0 km/h (0 Bft) 97,87 %
11.01.2022 18:18 0,2 C -1,1 C -0,6 C 99 % 1034,6 hPa 0,0 l/m 0 min 0 min 0 W/m 0,0 km/h (0 Bft) 97,83 %
11.01.2022 18:20 0,2 C -0,6 C -0,6 C 99 % 1034,7 hPa 0,0 l/m 0 min 0 min 0 W/m 0,0 km/h (0 Bft) 95,74 %
11.01.2022 18:22 0,2 C -0,6 C 0,0 C 99 % 1034,7 hPa 0,0 l/m 0 min 0 min 0 W/m 0,0 km/h (0 Bft) 95,74 %
11.01.2022 18:24 0,2 C -0,6 C 0,0 C 99 % 1034,7 hPa 0,0 l/m 0 min 0 min 0 W/m 0,0 km/h (0 Bft) 95,74 %
11.01.2022 18:26 0,2 C -0,6 C 0,0 C 99 % 1034,7 hPa 0,0 l/m 0 min 0 min 0 W/m 0,0 km/h (0 Bft) 97,87 %
11.01.2022 18:28 0,1 C -0,6 C 0,0 C 99 % 1034,8 hPa 0,0 l/m 0 min 0 min 0 W/m 0,0 km/h (0 Bft) 97,83 %
11.01.2022 18:30 0,1 C -0,6 C 0,0 C 99 % 1034,8 hPa 0,0 l/m 0 min 0 min 0 W/m 0,0 km/h (0 Bft) 97,87 %
11.01.2022 18:32 0,1 C -0,6 C 0,0 C 99 % 1034,9 hPa 0,0 l/m 0 min 0 min 0 W/m 0,0 km/h (0 Bft) 97,87 %
11.01.2022 18:34 0,1 C -0,6 C 0,0 C 99 % 1034,8 hPa 0,0 l/m 0 min 0 min 0 W/m 0,0 km/h (0 Bft) 97,87 %
11.01.2022 18:36 0,1 C -0,6 C 0,0 C 99 % 1034,8 hPa 0,0 l/m 0 min 0 min 0 W/m 0,0 km/h (0 Bft) 97,87 %
11.01.2022 18:38 0,1 C -0,6 C 0,0 C 99 % 1034,8 hPa 0,0 l/m 0 min 0 min 0 W/m 0,0 km/h (0 Bft) 97,87 %
11.01.2022 18:40 0,1 C -0,6 C 0,0 C 99 % 1034,9 hPa 0,0 l/m 0 min 0 min 0 W/m 0,0 km/h (0 Bft) 95,74 %
11.01.2022 18:42 0,1 C -0,6 C 0,0 C 99 % 1034,9 hPa 0,0 l/m 0 min 0 min 0 W/m 0,0 km/h (0 Bft) 97,83 %
11.01.2022 18:44 0,1 C -0,6 C 0,0 C 99 % 1034,8 hPa 0,0 l/m 0 min 0 min 0 W/m 0,0 km/h (0 Bft) 97,87 %
11.01.2022 18:46 0,1 C -0,6 C 0,0 C 99 % 1034,9 hPa 0,0 l/m 0 min 0 min 0 W/m 0,0 km/h (0 Bft) 97,87 %
11.01.2022 18:48 0,1 C -0,6 C 0,0 C 99 % 1034,8 hPa 0,0 l/m 0 min 0 min 0 W/m 0,0 km/h (0 Bft) 95,74 %
11.01.2022 18:50 0,1 C -1,1 C -0,6 C 99 % 1034,8 hPa 0,0 l/m 0 min 0 min 0 W/m 0,0 km/h (0 Bft) 95,74 %
11.01.2022 18:52 0,1 C -1,1 C -0,6 C 99 % 1034,9 hPa 0,0 l/m 0 min 0 min 0 W/m 0,0 km/h (0 Bft) 97,83 %
11.01.2022 18:54 0,1 C -1,1 C -0,6 C 99 % 1034,9 hPa 0,0 l/m 0 min 0 min 0 W/m 0,0 km/h (0 Bft) 95,74 %
11.01.2022 18:56 0,1 C -1,1 C -0,6 C 99 % 1034,9 hPa 0,0 l/m 0 min 0 min 0 W/m 0,0 km/h (0 Bft) 55,56 %
11.01.2022 18:58 0,1 C -1,1 C -0,6 C 99 % 1034,9 hPa 0,0 l/m 0 min 0 min 0 W/m 0,0 km/h (0 Bft) 95,65 %
11.01.2022 19:00 0,1 C -1,1 C -0,6 C 99 % 1034,9 hPa 0,0 l/m 0 min 0 min 0 W/m 0,0 km/h (0 Bft) 95,74 %
11.01.2022 19:02 0,0 C -1,1 C -0,6 C 99 % 1034,9 hPa 0,0 l/m 0 min 0 min 0 W/m 0,0 km/h (0 Bft) 93,62 %
11.01.2022 19:04 0,0 C -1,1 C -0,6 C 99 % 1034,9 hPa 0,0 l/m 0 min 0 min 0 W/m 0,0 km/h (0 Bft) 95,65 %
11.01.2022 19:06 0,0 C -1,1 C -0,6 C 99 % 1035,0 hPa 0,0 l/m 0 min 0 min 0 W/m 0,0 km/h (0 Bft) 93,62 %
11.01.2022 19:08 -0,1 C -1,1 C -0,6 C 99 % 1035,0 hPa 0,0 l/m 0 min 0 min 0 W/m 0,0 km/h (0 Bft) 95,74 %
11.01.2022 19:10 -0,1 C -1,1 C -0,6 C 99 % 1035,1 hPa 0,0 l/m 0 min 0 min 0 W/m 0,0 km/h (0 Bft) 93,62 %
11.01.2022 19:12 -0,1 C -1,1 C -0,6 C 99 % 1035,2 hPa 0,0 l/m 0 min 0 min 0 W/m 0,0 km/h (0 Bft) 91,49 %
11.01.2022 19:14 -0,1 C -1,1 C -0,6 C 99 % 1035,2 hPa 0,0 l/m 0 min 0 min 0 W/m 0,0 km/h (0 Bft) 93,62 %
11.01.2022 19:16 -0,1 C -1,1 C -0,6 C 99 % 1035,2 hPa 0,0 l/m 0 min 0 min 0 W/m 0,0 km/h (0 Bft) 93,48 %
11.01.2022 19:18 -0,1 C -1,1 C -0,6 C 99 % 1035,2 hPa 0,0 l/m 0 min 0 min 0 W/m 0,0 km/h (0 Bft) 97,87 %
11.01.2022 19:20 -0,2 C -1,1 C -0,6 C 99 % 1035,3 hPa 0,0 l/m 0 min 0 min 0 W/m 0,0 km/h (0 Bft) 95,74 %
11.01.2022 19:22 -0,2 C -1,1 C -0,6 C 99 % 1035,3 hPa 0,0 l/m 0 min 0 min 0 W/m 0,0 km/h (0 Bft) 95,74 %
11.01.2022 19:24 -0,2 C -1,1 C -0,6 C 99 % 1035,3 hPa 0,0 l/m 0 min 0 min 0 W/m 0,0 km/h (0 Bft) 95,74 %
11.01.2022 19:26 -0,2 C -1,1 C -0,6 C 99 % 1035,3 hPa 0,0 l/m 0 min 0 min 0 W/m 0,0 km/h (0 Bft) 93,88 %
11.01.2022 19:28 -0,2 C -1,1 C -0,6 C 99 % 1035,3 hPa 0,0 l/m 0 min 0 min 0 W/m 0,0 km/h (0 Bft) 100,00 %
11.01.2022 19:30 -0,2 C -1,1 C -0,6 C 99 % 1035,3 hPa 0,0 l/m 0 min 0 min 0 W/m 0,0 km/h (0 Bft) 100,00 %
11.01.2022 19:32 -0,3 C -1,1 C -0,6 C 99 % 1035,3 hPa 0,0 l/m 0 min 0 min 0 W/m 0,0 km/h (0 Bft) 100,00 %
11.01.2022 19:34 -0,3 C -1,1 C -0,6 C 99 % 1035,4 hPa 0,0 l/m 0 min 0 min 0 W/m 0,0 km/h (0 Bft) 97,87 %
11.01.2022 19:36 -0,3 C -1,1 C -0,6 C 99 % 1035,4 hPa 0,0 l/m 0 min 0 min 0 W/m 0,0 km/h (0 Bft) 100,00 %
11.01.2022 19:38 -0,3 C -1,1 C -0,6 C 99 % 1035,5 hPa 0,0 l/m 0 min 0 min 0 W/m 0,0 km/h (0 Bft) 45,95 %
11.01.2022 19:40 -0,3 C -1,1 C -0,6 C 99 % 1035,4 hPa 0,0 l/m 0 min 0 min 0 W/m 0,0 km/h (0 Bft) 97,87 %
11.01.2022 19:42 -0,3 C -1,1 C -0,6 C 99 % 1035,5 hPa 0,0 l/m 0 min 0 min 0 W/m 0,0 km/h (0 Bft) 100,00 %
11.01.2022 19:44 -0,4 C -1,1 C -0,6 C 99 % 1035,5 hPa 0,0 l/m 0 min 0 min 0 W/m 0,0 km/h (0 Bft) 97,87 %
11.01.2022 19:46 -0,4 C -1,1 C -0,6 C 99 % 1035,5 hPa 0,0 l/m 0 min 0 min 0 W/m 0,0 km/h (0 Bft) 97,87 %
11.01.2022 19:48 -0,4 C -1,1 C -0,6 C 99 % 1035,6 hPa 0,0 l/m 0 min 0 min 0 W/m 0,0 km/h (0 Bft) 100,00 %
11.01.2022 19:50 -0,4 C -1,1 C -0,6 C 99 % 1035,5 hPa 0,0 l/m 0 min 0 min 0 W/m 0,0 km/h (0 Bft) 100,00 %
11.01.2022 19:52 -0,4 C -1,1 C -0,6 C 99 % 1035,5 hPa 0,0 l/m 0 min 0 min 0 W/m 0,0 km/h (0 Bft) 100,00 %
11.01.2022 19:54 -0,4 C -1,1 C -0,6 C 99 % 1035,5 hPa 0,0 l/m 0 min 0 min 0 W/m 0,0 km/h (0 Bft) 100,00 %
11.01.2022 19:56 -0,4 C -1,1 C -0,6 C 99 % 1035,5 hPa 0,0 l/m 0 min 0 min 0 W/m 0,0 km/h (0 Bft) 100,00 %
11.01.2022 19:58 -0,4 C -1,1 C -0,6 C 99 % 1035,6 hPa 0,0 l/m 0 min 0 min 0 W/m 0,0 km/h (0 Bft) 97,87 %
11.01.2022 20:00 -0,4 C -1,1 C -0,6 C 99 % 1035,5 hPa 0,0 l/m 0 min 0 min 0 W/m 0,0 km/h (0 Bft) 100,00 %
11.01.2022 20:02 -0,4 C -0,6 C -0,6 C 99 % 1035,5 hPa 0,0 l/m 0 min 0 min 0 W/m 0,0 km/h (0 Bft) 97,87 %
11.01.2022 20:04 -0,4 C -0,6 C 0,0 C 99 % 1035,5 hPa 0,0 l/m 0 min 0 min 0 W/m 3,2 km/h (1 Bft) 100,00 %
11.01.2022 20:06 -0,3 C 0,0 C 0,0 C 99 % 1035,5 hPa 0,0 l/m 0 min 0 min 0 W/m 6,4 km/h (2 Bft) 100,00 %
11.01.2022 20:08 -0,2 C 0,0 C 0,0 C 99 % 1035,4 hPa 0,0 l/m 0 min 0 min 0 W/m 6,4 km/h (2 Bft) 100,00 %
11.01.2022 20:10 -0,2 C 0,0 C 0,0 C 99 % 1035,4 hPa 0,0 l/m 0 min 0 min 0 W/m 6,4 km/h (2 Bft) 100,00 %
11.01.2022 20:12 -0,1 C 0,0 C 0,6 C 99 % 1035,4 hPa 0,0 l/m 0 min 0 min 0 W/m 6,4 km/h (2 Bft) 100,00 %
11.01.2022 20:14 0,0 C 0,0 C 0,6 C 99 % 1035,5 hPa 0,0 l/m 0 min 0 min 0 W/m 6,4 km/h (2 Bft) 100,00 %
11.01.2022 20:16 0,1 C 0,6 C 0,6 C 99 % 1035,5 hPa 0,0 l/m 0 min 0 min 0 W/m 6,4 km/h (2 Bft) 97,87 %
11.01.2022 20:18 0,1 C 0,6 C 0,6 C 99 % 1035,5 hPa 0,0 l/m 0 min 0 min 0 W/m 6,4 km/h (2 Bft) 100,00 %
11.01.2022 20:20 0,2 C 0,6 C 0,6 C 99 % 1035,5 hPa 0,0 l/m 0 min 0 min 0 W/m 6,4 km/h (2 Bft) 55,56 %
11.01.2022 20:22 0,3 C 0,6 C 0,6 C 99 % 1035,6 hPa 0,0 l/m 0 min 0 min 0 W/m 12,9 km/h (3 Bft) 100,00 %
11.01.2022 20:24 0,4 C 0,6 C 0,6 C 99 % 1035,6 hPa 0,0 l/m 0 min 0 min 0 W/m 6,4 km/h (2 Bft) 100,00 %
11.01.2022 20:26 0,5 C 0,6 C 0,6 C 99 % 1035,6 hPa 0,0 l/m 0 min 0 min 0 W/m 6,4 km/h (2 Bft) 100,00 %
11.01.2022 20:28 0,6 C 0,6 C 0,6 C 99 % 1035,6 hPa 0,0 l/m 0 min 0 min 0 W/m 6,4 km/h (2 Bft) 100,00 %
11.01.2022 20:30 0,6 C 0,6 C 0,6 C 99 % 1035,7 hPa 0,0 l/m 0 min 0 min 0 W/m 6,4 km/h (2 Bft) 100,00 %
11.01.2022 20:32 0,6 C 0,6 C 0,6 C 99 % 1035,6 hPa 0,0 l/m 0 min 0 min 0 W/m 12,9 km/h (3 Bft) 100,00 %
11.01.2022 20:34 0,6 C 0,6 C 0,6 C 99 % 1035,6 hPa 0,0 l/m 0 min 0 min 0 W/m 6,4 km/h (2 Bft) 100,00 %
11.01.2022 20:36 0,6 C 0,6 C 0,6 C 99 % 1035,7 hPa 0,0 l/m 0 min 0 min 0 W/m 6,4 km/h (2 Bft) 100,00 %
11.01.2022 20:38 0,7 C 0,6 C 0,6 C 99 % 1035,6 hPa 0,0 l/m 0 min 0 min 0 W/m 12,9 km/h (3 Bft) 97,87 %
11.01.2022 20:40 0,8 C 0,6 C 0,6 C 99 % 1035,6 hPa 0,0 l/m 0 min 0 min 0 W/m 6,4 km/h (2 Bft) 100,00 %
11.01.2022 20:42 0,8 C 0,6 C 0,6 C 99 % 1035,6 hPa 0,0 l/m 0 min 0 min 0 W/m 12,9 km/h (3 Bft) 97,87 %
11.01.2022 20:44 0,8 C 0,6 C 0,6 C 99 % 1035,6 hPa 0,0 l/m 0 min 0 min 0 W/m 12,9 km/h (3 Bft) 95,74 %
11.01.2022 20:46 0,8 C 0,6 C 0,6 C 99 % 1035,5 hPa 0,0 l/m 0 min 0 min 0 W/m 12,9 km/h (3 Bft) 100,00 %
11.01.2022 20:48 0,8 C 0,6 C 0,6 C 99 % 1035,5 hPa 0,0 l/m 0 min 0 min 0 W/m 12,9 km/h (3 Bft) 95,65 %
11.01.2022 20:50 0,9 C 0,6 C 0,6 C 99 % 1035,5 hPa 0,0 l/m 0 min 0 min 0 W/m 9,7 km/h (2 Bft) 97,87 %
11.01.2022 20:52 0,9 C 0,6 C 0,6 C 99 % 1035,6 hPa 0,0 l/m 0 min 0 min 0 W/m 12,9 km/h (3 Bft) 97,87 %
11.01.2022 20:54 0,9 C 0,6 C 0,6 C 99 % 1035,6 hPa 0,0 l/m 0 min 0 min 0 W/m 12,9 km/h (3 Bft) 95,74 %
11.01.2022 20:56 0,9 C 0,6 C 0,6 C 99 % 1035,6 hPa 0,0 l/m 0 min 0 min 0 W/m 12,9 km/h (3 Bft) 97,87 %
11.01.2022 20:58 0,9 C 0,6 C 1,1 C 99 % 1035,6 hPa 0,0 l/m 0 min 0 min 0 W/m 6,4 km/h (2 Bft) 95,74 %
11.01.2022 21:00 0,9 C 0,6 C 0,6 C 99 % 1035,6 hPa 0,0 l/m 0 min 0 min 0 W/m 6,4 km/h (2 Bft) 97,83 %
11.01.2022 21:02 0,9 C 0,6 C 0,6 C 99 % 1035,7 hPa 0,0 l/m 0 min 0 min 0 W/m 6,4 km/h (2 Bft) 93,62 %
11.01.2022 21:04 0,9 C 0,6 C 0,6 C 99 % 1035,7 hPa 0,0 l/m 0 min 0 min 0 W/m 6,4 km/h (2 Bft) 95,74 %
11.01.2022 21:06 0,9 C 0,6 C 0,6 C 99 % 1035,8 hPa 0,0 l/m 0 min 0 min 0 W/m 6,4 km/h (2 Bft) 95,74 %
11.01.2022 21:08 0,9 C 0,6 C 0,6 C 99 % 1035,8 hPa 0,0 l/m 0 min 0 min 0 W/m 6,4 km/h (2 Bft) 95,74 %
11.01.2022 21:10 0,9 C 0,6 C 0,6 C 99 % 1035,8 hPa 0,0 l/m 0 min 0 min 0 W/m 6,4 km/h (2 Bft) 95,74 %
11.01.2022 21:12 0,9 C 0,6 C 0,6 C 99 % 1035,8 hPa 0,0 l/m 0 min 0 min 0 W/m 3,2 km/h (1 Bft) 95,65 %
11.01.2022 21:14 0,9 C 0,6 C 0,6 C 99 % 1035,8 hPa 0,0 l/m 0 min 0 min 0 W/m 3,2 km/h (1 Bft) 89,36 %
11.01.2022 21:16 0,9 C 0,6 C 0,6 C 99 % 1035,8 hPa 0,0 l/m 0 min 0 min 0 W/m 3,2 km/h (1 Bft) 91,49 %
11.01.2022 21:18 0,9 C 0,6 C 0,6 C 99 % 1035,8 hPa 0,0 l/m 0 min 0 min 0 W/m 6,4 km/h (2 Bft) 93,62 %
11.01.2022 21:20 0,9 C 0,6 C 0,6 C 99 % 1035,8 hPa 0,0 l/m 0 min 0 min 0 W/m 3,2 km/h (1 Bft) 91,49 %
11.01.2022 21:22 0,9 C 0,6 C 0,6 C 99 % 1035,7 hPa 0,0 l/m 0 min 0 min 0 W/m 6,4 km/h (2 Bft) 95,74 %
11.01.2022 21:24 0,9 C 0,6 C 0,6 C 99 % 1035,7 hPa 0,0 l/m 0 min 0 min 0 W/m 6,4 km/h (2 Bft) 95,65 %
11.01.2022 21:26 0,9 C 0,6 C 0,6 C 99 % 1035,8 hPa 0,0 l/m 0 min 0 min 0 W/m 9,7 km/h (2 Bft) 95,74 %
11.01.2022 21:28 0,9 C 0,6 C 0,6 C 99 % 1035,7 hPa 0,0 l/m 0 min 0 min 0 W/m 6,4 km/h (2 Bft) 93,62 %
11.01.2022 21:30 0,9 C 0,6 C 0,6 C 99 % 1035,6 hPa 0,0 l/m 0 min 0 min 0 W/m 9,7 km/h (2 Bft) 95,74 %
11.01.2022 21:32 0,9 C 0,6 C 0,6 C 99 % 1035,6 hPa 0,0 l/m 0 min 0 min 0 W/m 6,4 km/h (2 Bft) 95,74 %
11.01.2022 21:34 0,9 C 0,6 C 0,6 C 99 % 1035,6 hPa 0,0 l/m 0 min 0 min 0 W/m 6,4 km/h (2 Bft) 95,65 %
11.01.2022 21:36 0,9 C 0,6 C 0,6 C 99 % 1035,6 hPa 0,0 l/m 0 min 0 min 0 W/m 12,9 km/h (3 Bft) 93,62 %
11.01.2022 21:38 0,9 C 0,6 C 0,6 C 99 % 1035,6 hPa 0,0 l/m 0 min 0 min 0 W/m 12,9 km/h (3 Bft) 93,62 %
11.01.2022 21:40 0,8 C 0,6 C 0,6 C 99 % 1035,6 hPa 0,0 l/m 0 min 0 min 0 W/m 9,7 km/h (2 Bft) 97,87 %
11.01.2022 21:42 0,8 C 0,6 C 0,6 C 99 % 1035,7 hPa 0,0 l/m 0 min 0 min 0 W/m 6,4 km/h (2 Bft) 100,00 %
11.01.2022 21:44 0,8 C 0,0 C 0,6 C 99 % 1035,7 hPa 0,0 l/m 0 min 0 min 0 W/m 6,4 km/h (2 Bft) 97,87 %
11.01.2022 21:46 0,8 C 0,0 C 0,6 C 99 % 1035,8 hPa 0,0 l/m 0 min 0 min 0 W/m 6,4 km/h (2 Bft) 97,87 %
11.01.2022 21:48 0,8 C 0,0 C 0,6 C 99 % 1035,8 hPa 0,0 l/m 0 min 0 min 0 W/m 3,2 km/h (1 Bft) 95,65 %
11.01.2022 21:50 0,8 C 0,0 C 0,6 C 99 % 1035,7 hPa 0,0 l/m 0 min 0 min 0 W/m 6,4 km/h (2 Bft) 97,87 %
11.01.2022 21:52 0,7 C 0,0 C 0,6 C 99 % 1035,7 hPa 0,0 l/m 0 min 0 min 0 W/m 6,4 km/h (2 Bft) 97,87 %
11.01.2022 21:54 0,8 C 0,0 C 0,6 C 99 % 1035,8 hPa 0,0 l/m 0 min 0 min 0 W/m 6,4 km/h (2 Bft) 95,74 %
11.01.2022 21:56 0,7 C 0,0 C 0,6 C 99 % 1035,8 hPa 0,0 l/m 0 min 0 min 0 W/m 6,4 km/h (2 Bft) 97,87 %
11.01.2022 21:58 0,7 C 0,0 C 0,6 C 99 % 1035,8 hPa 0,0 l/m 0 min 0 min 0 W/m 3,2 km/h (1 Bft) 93,48 %
11.01.2022 22:00 0,7 C 0,0 C 0,6 C 99 % 1035,8 hPa 0,0 l/m 0 min 0 min 0 W/m 6,4 km/h (2 Bft) 97,87 %
11.01.2022 22:02 0,7 C 0,0 C 0,6 C 99 % 1035,8 hPa 0,0 l/m 0 min 0 min 0 W/m 3,2 km/h (1 Bft) 95,74 %
11.01.2022 22:04 0,7 C 0,6 C 0,6 C 99 % 1035,9 hPa 0,0 l/m 0 min 0 min 0 W/m 3,2 km/h (1 Bft) 97,87 %
11.01.2022 22:06 0,7 C 0,6 C 0,6 C 99 % 1035,9 hPa 0,0 l/m 0 min 0 min 0 W/m 3,2 km/h (1 Bft) 97,87 %
11.01.2022 22:08 0,7 C 0,6 C 0,6 C 99 % 1036,0 hPa 0,0 l/m 0 min 0 min 0 W/m 3,2 km/h (1 Bft) 100,00 %
11.01.2022 22:10 0,7 C 0,6 C 0,6 C 99 % 1035,9 hPa 0,0 l/m 0 min 0 min 0 W/m 6,4 km/h (2 Bft) 100,00 %
11.01.2022 22:12 0,7 C 0,6 C 0,6 C 99 % 1036,0 hPa 0,0 l/m 0 min 0 min 0 W/m 3,2 km/h (1 Bft) 97,87 %
11.01.2022 22:14 0,7 C 0,6 C 0,6 C 99 % 1036,0 hPa 0,0 l/m 0 min 0 min 0 W/m 6,4 km/h (2 Bft) 97,87 %
11.01.2022 22:16 0,7 C 0,6 C 0,6 C 99 % 1036,0 hPa 0,0 l/m 0 min 0 min 0 W/m 6,4 km/h (2 Bft) 97,87 %
11.01.2022 22:18 0,7 C 0,6 C 0,6 C 99 % 1036,0 hPa 0,0 l/m 0 min 0 min 0 W/m 3,2 km/h (1 Bft) 97,87 %
11.01.2022 22:20 0,7 C 0,6 C 0,6 C 99 % 1036,0 hPa 0,0 l/m 0 min 0 min 0 W/m 3,2 km/h (1 Bft) 100,00 %
11.01.2022 22:22 0,7 C 0,6 C 0,6 C 99 % 1036,0 hPa 0,0 l/m 0 min 0 min 0 W/m 6,4 km/h (2 Bft) 97,83 %
11.01.2022 22:24 0,7 C 0,6 C 0,6 C 99 % 1036,1 hPa 0,0 l/m 0 min 0 min 0 W/m 6,4 km/h (2 Bft) 95,74 %
11.01.2022 22:26 0,7 C 0,6 C 0,6 C 99 % 1036,1 hPa 0,0 l/m 0 min 0 min 0 W/m 6,4 km/h (2 Bft) 100,00 %
11.01.2022 22:28 0,7 C 0,6 C 0,6 C 99 % 1036,2 hPa 0,0 l/m 0 min 0 min 0 W/m 12,9 km/h (3 Bft) 100,00 %
11.01.2022 22:30 0,7 C 0,6 C 0,6 C 99 % 1036,2 hPa 0,0 l/m 0 min 0 min 0 W/m 3,2 km/h (1 Bft) 97,87 %
11.01.2022 22:32 0,7 C 0,6 C 0,6 C 99 % 1036,3 hPa 0,0 l/m 0 min 0 min 0 W/m 3,2 km/h (1 Bft) 100,00 %
11.01.2022 22:34 0,7 C 0,6 C 0,6 C 99 % 1036,3 hPa 0,0 l/m 0 min 0 min 0 W/m 3,2 km/h (1 Bft) 100,00 %
11.01.2022 22:36 0,7 C 0,6 C 0,6 C 99 % 1036,2 hPa 0,0 l/m 0 min 0 min 0 W/m 3,2 km/h (1 Bft) 97,87 %
11.01.2022 22:38 0,7 C 0,6 C 0,6 C 99 % 1036,2 hPa 0,0 l/m 0 min 0 min 0 W/m 3,2 km/h (1 Bft) 97,87 %
11.01.2022 22:40 0,7 C 0,6 C 0,6 C 99 % 1036,2 hPa 0,0 l/m 0 min 0 min 0 W/m 6,4 km/h (2 Bft) 97,87 %
11.01.2022 22:42 0,7 C 0,6 C 0,6 C 99 % 1036,2 hPa 0,0 l/m 0 min 0 min 0 W/m 6,4 km/h (2 Bft) 97,87 %
11.01.2022 22:44 0,7 C 0,6 C 0,6 C 99 % 1036,1 hPa 0,0 l/m 0 min 0 min 0 W/m 12,9 km/h (3 Bft) 97,87 %
11.01.2022 22:46 0,7 C 0,6 C 0,6 C 99 % 1036,1 hPa 0,0 l/m 0 min 0 min 0 W/m 6,4 km/h (2 Bft) 97,83 %
11.01.2022 22:48 0,7 C 0,6 C 0,6 C 99 % 1036,1 hPa 0,0 l/m 0 min 0 min 0 W/m 12,9 km/h (3 Bft) 97,87 %
11.01.2022 22:50 0,7 C 0,6 C 0,6 C 99 % 1036,1 hPa 0,0 l/m 0 min 0 min 0 W/m 6,4 km/h (2 Bft) 95,74 %
11.01.2022 22:52 0,7 C 0,6 C 0,6 C 99 % 1036,1 hPa 0,0 l/m 0 min 0 min 0 W/m 6,4 km/h (2 Bft) 97,87 %
11.01.2022 22:54 0,6 C 0,0 C 0,6 C 99 % 1036,1 hPa 0,0 l/m 0 min 0 min 0 W/m 9,7 km/h (2 Bft) 95,74 %
11.01.2022 22:56 0,6 C 0,0 C 0,6 C 99 % 1036,1 hPa 0,0 l/m 0 min 0 min 0 W/m 6,4 km/h (2 Bft) 97,87 %
11.01.2022 22:58 0,6 C 0,0 C 0,6 C 99 % 1036,1 hPa 0,0 l/m 0 min 0 min 0 W/m 9,7 km/h (2 Bft) 95,65 %
11.01.2022 23:00 0,6 C 0,0 C 0,6 C 99 % 1036,1 hPa 0,0 l/m 0 min 0 min 0 W/m 6,4 km/h (2 Bft) 95,74 %
11.01.2022 23:02 0,6 C 0,0 C 0,6 C 99 % 1036,1 hPa 0,0 l/m 0 min 0 min 0 W/m 6,4 km/h (2 Bft) 97,87 %
11.01.2022 23:04 0,6 C 0,0 C 0,6 C 99 % 1036,1 hPa 0,0 l/m 0 min 0 min 0 W/m 9,7 km/h (2 Bft) 97,87 %
11.01.2022 23:06 0,6 C 0,0 C 0,6 C 99 % 1036,1 hPa 0,0 l/m 0 min 0 min 0 W/m 9,7 km/h (2 Bft) 95,74 %
11.01.2022 23:08 0,6 C 0,0 C 0,6 C 99 % 1036,2 hPa 0,0 l/m 0 min 0 min 0 W/m 12,9 km/h (3 Bft) 97,87 %
11.01.2022 23:10 0,6 C 0,0 C 0,6 C 99 % 1036,1 hPa 0,0 l/m 0 min 0 min 0 W/m 6,4 km/h (2 Bft) 100,00 %
11.01.2022 23:12 0,6 C 0,0 C 0,6 C 99 % 1036,1 hPa 0,0 l/m 0 min 0 min 0 W/m 12,9 km/h (3 Bft) 100,00 %
11.01.2022 23:14 0,6 C 0,0 C 0,6 C 99 % 1036,1 hPa 0,0 l/m 0 min 0 min 0 W/m 6,4 km/h (2 Bft) 97,87 %
11.01.2022 23:16 0,6 C 0,0 C 0,6 C 99 % 1036,2 hPa 0,0 l/m 0 min 0 min 0 W/m 6,4 km/h (2 Bft) 97,87 %
11.01.2022 23:18 0,6 C 0,0 C 0,6 C 99 % 1036,1 hPa 0,0 l/m 0 min 0 min 0 W/m 12,9 km/h (3 Bft) 100,00 %
11.01.2022 23:20 0,6 C 0,0 C 0,6 C 99 % 1036,2 hPa 0,0 l/m 0 min 0 min 0 W/m 9,7 km/h (2 Bft) 95,74 %
11.01.2022 23:22 0,6 C 0,0 C 0,6 C 99 % 1036,2 hPa 0,0 l/m 0 min 0 min 0 W/m 6,4 km/h (2 Bft) 86,96 %
11.01.2022 23:24 0,6 C 0,0 C 0,6 C 99 % 1036,3 hPa 0,0 l/m 0 min 0 min 0 W/m 6,4 km/h (2 Bft) 60,47 %
11.01.2022 23:26 0,6 C 0,0 C 0,6 C 99 % 1036,3 hPa 0,0 l/m 0 min 0 min 0 W/m 12,9 km/h (3 Bft) 97,87 %
11.01.2022 23:28 0,6 C 0,0 C 0,6 C 99 % 1036,3 hPa 0,0 l/m 0 min 0 min 0 W/m 6,4 km/h (2 Bft) 97,87 %
11.01.2022 23:30 0,6 C 0,0 C 0,6 C 99 % 1036,3 hPa 0,0 l/m 0 min 0 min 0 W/m 12,9 km/h (3 Bft) 97,87 %
11.01.2022 23:32 0,6 C 0,0 C 0,6 C 99 % 1036,3 hPa 0,0 l/m 0 min 0 min 0 W/m 6,4 km/h (2 Bft) 97,87 %
11.01.2022 23:34 0,6 C 0,0 C 0,6 C 99 % 1036,3 hPa 0,0 l/m 0 min 0 min 0 W/m 12,9 km/h (3 Bft) 97,83 %
11.01.2022 23:36 0,6 C 0,0 C 0,6 C 99 % 1036,3 hPa 0,0 l/m 0 min 0 min 0 W/m 6,4 km/h (2 Bft) 97,87 %
11.01.2022 23:38 0,6 C 0,0 C 0,6 C 99 % 1036,3 hPa 0,0 l/m 0 min 0 min 0 W/m 12,9 km/h (3 Bft) 97,87 %
11.01.2022 23:40 0,6 C 0,0 C 0,6 C 99 % 1036,2 hPa 0,0 l/m 0 min 0 min 0 W/m 6,4 km/h (2 Bft) 97,87 %
11.01.2022 23:42 0,5 C 0,0 C 0,6 C 99 % 1036,2 hPa 0,0 l/m 0 min 0 min 0 W/m 12,9 km/h (3 Bft) 95,74 %
11.01.2022 23:44 0,5 C 0,0 C 0,6 C 99 % 1036,1 hPa 0,0 l/m 0 min 0 min 0 W/m 12,9 km/h (3 Bft) 95,74 %
11.01.2022 23:46 0,5 C 0,0 C 0,6 C 99 % 1036,2 hPa 0,0 l/m 0 min 0 min 0 W/m 12,9 km/h (3 Bft) 97,83 %
11.01.2022 23:48 0,5 C 0,0 C 0,6 C 99 % 1036,2 hPa 0,0 l/m 0 min 0 min 0 W/m 12,9 km/h (3 Bft) 95,74 %
11.01.2022 23:50 0,4 C 0,0 C 0,6 C 99 % 1036,3 hPa 0,0 l/m 0 min 0 min 0 W/m 12,9 km/h (3 Bft) 97,87 %
11.01.2022 23:52 0,4 C 0,0 C 0,6 C 99 % 1036,3 hPa 0,0 l/m 0 min 0 min 0 W/m 6,4 km/h (2 Bft) 95,74 %
11.01.2022 23:54 0,4 C 0,0 C 0,6 C 99 % 1036,3 hPa 0,0 l/m 0 min 0 min 0 W/m 6,4 km/h (2 Bft) 95,74 %
11.01.2022 23:56 0,4 C 0,0 C 0,0 C 99 % 1036,4 hPa 0,0 l/m 0 min 0 min 0 W/m 12,9 km/h (3 Bft) 97,83 %
11.01.2022 23:58 0,4 C 0,0 C 0,6 C 99 % 1036,3 hPa 0,0 l/m 0 min 0 min 0 W/m 9,7 km/h (2 Bft) 95,74 %
_ Min-Zeit 08:10 00:50 00:46 00:00 00:00 - - - - 17:02 19:38
Minimum _ -1,2 C -1,7 C -1,7 C 96 % 1030,8 hPa - - - - 0,0 km/h (0 Bft) 45,95 %
_ Max-Zeit 15:28 15:08 14:58 09:18 23:56 01:32 12:34 00:00 12:44 00:56 01:16
Maximum _ 1,3 C 2,2 C 1,7 C 99 % 1036,4 hPa 0,2 l/m 2 min 0 min 205 W/m 22,5 km/h
S-SO (4 Bft)
100,00 %
Durchschnitt _ -0,1 C -0,5 C -0,2 C 98 % 1033,8 hPa #0,2 l/m #1:18 h #0 min. 88 W/m 9,1 km/h (2 Bft) 96,87 %
© 2022 W. Hausmann